Time,TemperatureF,DewpointF,PressureIn,WindDirection,WindDirectionDegrees,WindSpeedMPH,WindSpeedGustMPH,Humidity,HourlyPrecipIn,Conditions,Clouds,dailyrainin,SoftwareType,DateUTC
2013-02-26 00:02:00,28.1,25.5,30.05,SE,144,0.0,0.0,90,0.00,,OVC016,0.00,VWS V12.07,2013-02-26 06:02:00,
2013-02-26 00:03:00,28.1,25.5,30.05,SE,144,0.0,0.0,90,0.00,,OVC016,0.00,VWS V12.07,2013-02-26 06:03:00,
2013-02-26 00:04:00,28.1,25.5,30.05,SE,144,0.0,0.0,90,0.00,,OVC030,0.00,VWS V12.07,2013-02-26 06:04:00,
2013-02-26 00:07:00,28.2,25.6,30.05,SE,144,0.0,0.0,90,0.00,,OVC030,0.00,VWS V12.07,2013-02-26 06:07:00,
2013-02-26 00:08:00,28.2,25.6,30.05,SE,144,0.0,0.0,90,0.00,,OVC030,0.00,VWS V12.07,2013-02-26 06:08:00,
2013-02-26 00:09:00,28.2,25.4,30.05,SE,144,0.0,0.0,89,0.00,,OVC016,0.00,VWS V12.07,2013-02-26 06:09:00,
2013-02-26 00:13:00,28.2,25.4,30.05,SE,144,0.0,0.0,89,0.00,,OVC016,0.00,VWS V12.07,2013-02-26 06:13:00,
2013-02-26 00:14:00,28.2,25.4,30.05,SE,144,0.0,0.0,89,0.00,,OVC016,0.00,VWS V12.07,2013-02-26 06:14:00,
2013-02-26 00:15:00,28.2,25.4,30.03,SE,144,0.0,0.0,89,0.00,,OVC016,0.00,VWS V12.07,2013-02-26 06:15:00,
2013-02-26 00:18:00,28.4,25.6,30.03,SE,144,0.0,0.0,89,0.00,,OVC016,0.00,VWS V12.07,2013-02-26 06:18:00,
2013-02-26 00:19:00,28.4,25.6,30.03,SE,144,0.0,0.0,89,0.00,,OVC016,0.00,VWS V12.07,2013-02-26 06:19:00,
2013-02-26 00:20:00,28.4,25.6,30.03,SE,144,0.0,0.0,89,0.00,,OVC016,0.00,VWS V12.07,2013-02-26 06:20:00,
2013-02-26 00:23:00,28.4,25.6,30.03,SE,144,0.0,0.0,89,0.00,,OVC016,0.00,VWS V12.07,2013-02-26 06:23:00,
2013-02-26 00:25:00,28.4,25.6,30.03,SE,144,0.0,0.0,89,0.00,,OVC016,0.00,VWS V12.07,2013-02-26 06:25:00,
2013-02-26 00:28:00,28.4,25.6,30.03,SE,144,0.0,0.0,89,0.00,,OVC016,0.00,VWS V12.07,2013-02-26 06:28:00,
2013-02-26 00:29:00,28.4,25.6,30.03,SE,144,0.0,0.0,89,0.00,,OVC016,0.00,VWS V12.07,2013-02-26 06:29:00,
2013-02-26 00:30:00,28.4,25.6,30.05,SE,144,0.0,0.0,89,0.00,,OVC016,0.00,VWS V12.07,2013-02-26 06:30:00,
2013-02-26 00:34:00,28.4,25.6,30.05,SE,144,0.0,1.0,89,0.00,,OVC016,0.00,VWS V12.07,2013-02-26 06:34:00,
2013-02-26 00:35:00,28.5,25.7,30.05,SE,144,0.0,1.0,89,0.00,,OVC016,0.00,VWS V12.07,2013-02-26 06:35:00,
2013-02-26 00:39:00,28.5,25.7,30.05,SE,144,0.0,0.0,89,0.00,,OVC016,0.00,VWS V12.07,2013-02-26 06:39:00,
2013-02-26 00:40:00,28.5,25.7,30.05,SE,144,0.0,0.0,89,0.00,,OVC016,0.00,VWS V12.07,2013-02-26 06:40:00,
2013-02-26 00:44:00,28.4,25.6,30.05,SE,144,0.0,0.0,89,0.00,,OVC016,0.00,VWS V12.07,2013-02-26 06:44:00,
2013-02-26 00:45:00,28.4,25.6,30.05,SE,144,0.0,0.0,89,0.00,,OVC016,0.00,VWS V12.07,2013-02-26 06:45:00,
2013-02-26 00:46:00,28.4,25.6,30.05,SE,144,0.0,0.0,89,0.00,,OVC016,0.00,VWS V12.07,2013-02-26 06:46:00,
2013-02-26 00:49:00,28.4,25.6,30.05,SE,144,0.0,0.0,89,0.00,,OVC016,0.00,VWS V12.07,2013-02-26 06:49:00,
2013-02-26 00:50:00,28.4,25.6,30.05,SE,144,0.0,0.0,89,0.00,,OVC016,0.00,VWS V12.07,2013-02-26 06:50:00,
2013-02-26 00:51:00,28.4,25.6,30.05,SE,144,0.0,0.0,89,0.00,,OVC016,0.00,VWS V12.07,2013-02-26 06:51:00,
2013-02-26 00:55:00,28.4,25.6,30.05,SE,144,0.0,0.0,89,0.00,,OVC016,0.00,VWS V12.07,2013-02-26 06:55:00,
2013-02-26 00:56:00,28.4,25.6,30.05,SE,144,0.0,0.0,89,0.00,,OVC016,0.00,VWS V12.07,2013-02-26 06:56:00,
2013-02-26 01:00:00,28.4,25.6,30.05,SE,144,0.0,0.0,89,0.00,,OVC018,0.00,VWS V12.07,2013-02-26 07:00:00,
2013-02-26 01:01:00,28.4,25.6,30.05,SE,144,0.0,0.0,89,0.00,,OVC018,0.00,VWS V12.07,2013-02-26 07:01:00,
2013-02-26 01:05:00,28.4,25.6,30.05,SE,144,0.0,0.0,89,0.00,,OVC016,0.00,VWS V12.07,2013-02-26 07:05:00,
2013-02-26 01:07:00,28.4,25.6,30.05,SE,144,0.0,0.0,89,0.00,,OVC016,0.00,VWS V12.07,2013-02-26 07:07:00,
2013-02-26 01:10:00,28.4,25.6,30.05,SE,144,0.0,0.0,89,0.00,,OVC018,0.00,VWS V12.07,2013-02-26 07:10:00,
2013-02-26 01:11:00,28.4,25.6,30.05,SE,144,0.0,0.0,89,0.00,,OVC018,0.00,VWS V12.07,2013-02-26 07:11:00,
2013-02-26 01:12:00,28.4,25.6,30.05,SE,144,0.0,0.0,89,0.00,,OVC018,0.00,VWS V12.07,2013-02-26 07:12:00,
2013-02-26 01:16:00,28.4,25.6,30.05,SE,144,0.0,0.0,89,0.00,,OVC018,0.00,VWS V12.07,2013-02-26 07:16:00,
2013-02-26 01:17:00,28.4,25.6,30.05,SE,144,0.0,0.0,89,0.00,,OVC018,0.00,VWS V12.07,2013-02-26 07:17:00,
2013-02-26 01:21:00,28.4,25.6,30.05,SE,144,0.0,0.0,89,0.00,,OVC018,0.00,VWS V12.07,2013-02-26 07:21:00,
2013-02-26 01:22:00,28.4,25.6,30.05,SE,144,0.0,0.0,89,0.00,,OVC018,0.00,VWS V12.07,2013-02-26 07:22:00,
2013-02-26 01:23:00,28.4,25.6,30.05,SE,144,0.0,0.0,89,0.00,,OVC018,0.00,VWS V12.07,2013-02-26 07:23:00,
2013-02-26 01:27:00,28.4,25.6,30.05,SE,144,0.0,0.0,89,0.00,,OVC018,0.00,VWS V12.07,2013-02-26 07:27:00,
2013-02-26 01:28:00,28.4,25.6,30.05,SE,144,0.0,0.0,89,0.00,,OVC018,0.00,VWS V12.07,2013-02-26 07:28:00,
2013-02-26 01:32:00,28.4,25.6,30.03,SE,144,0.0,0.0,89,0.00,,OVC018,0.00,VWS V12.07,2013-02-26 07:32:00,
2013-02-26 01:34:00,28.4,25.6,30.03,SE,144,0.0,0.0,89,0.00,,OVC018,0.00,VWS V12.07,2013-02-26 07:34:00,
2013-02-26 01:37:00,28.4,25.6,30.03,SE,144,0.0,0.0,89,0.00,,OVC018,0.00,VWS V12.07,2013-02-26 07:37:00,
2013-02-26 01:38:00,28.4,25.6,30.03,SE,144,0.0,0.0,89,0.00,,OVC018,0.00,VWS V12.07,2013-02-26 07:38:00,
2013-02-26 01:39:00,28.4,25.6,30.03,SE,144,0.0,0.0,89,0.00,,OVC018,0.00,VWS V12.07,2013-02-26 07:39:00,
2013-02-26 01:42:00,28.4,25.6,30.03,SE,144,0.0,0.0,89,0.00,,OVC018,0.00,VWS V12.07,2013-02-26 07:42:00,
2013-02-26 01:43:00,28.4,25.6,30.03,SE,144,0.0,0.0,89,0.00,,OVC018,0.00,VWS V12.07,2013-02-26 07:43:00,
2013-02-26 01:44:00,28.4,25.6,30.03,SE,144,0.0,0.0,89,0.00,,OVC018,0.00,VWS V12.07,2013-02-26 07:44:00,
2013-02-26 01:47:00,28.4,25.6,30.03,SE,144,0.0,0.0,89,0.00,,OVC018,0.00,VWS V12.07,2013-02-26 07:47:00,
2013-02-26 01:48:00,28.4,25.6,30.03,SE,144,0.0,0.0,89,0.00,,OVC018,0.00,VWS V12.07,2013-02-26 07:48:00,
2013-02-26 01:50:00,28.4,25.6,30.03,SE,144,0.0,0.0,89,0.00,,OVC035,0.00,VWS V12.07,2013-02-26 07:50:00,
2013-02-26 01:52:00,28.4,25.6,30.03,SE,144,0.0,0.0,89,0.00,,OVC035,0.00,VWS V12.07,2013-02-26 07:52:00,
2013-02-26 01:53:00,28.4,25.6,30.03,SE,144,0.0,0.0,89,0.00,,OVC035,0.00,VWS V12.07,2013-02-26 07:53:00,
2013-02-26 01:56:00,28.4,25.6,30.03,SE,144,0.0,0.0,89,0.00,,OVC035,0.00,VWS V12.07,2013-02-26 07:56:00,
2013-02-26 01:58:00,28.4,25.6,30.03,SE,144,0.0,0.0,89,0.00,,OVC035,0.00,VWS V12.07,2013-02-26 07:58:00,
2013-02-26 02:02:00,28.4,25.6,30.02,SE,144,0.0,0.0,89,0.00,,OVC035,0.00,VWS V12.07,2013-02-26 08:02:00,
2013-02-26 02:03:00,28.4,25.6,30.02,SE,144,0.0,0.0,89,0.00,,OVC035,0.00,VWS V12.07,2013-02-26 08:03:00,
2013-02-26 02:04:00,28.4,25.6,30.02,SE,144,0.0,0.0,89,0.00,,OVC018,0.00,VWS V12.07,2013-02-26 08:04:00,
2013-02-26 02:07:00,28.4,25.6,30.02,SE,144,0.0,0.0,89,0.00,,OVC018,0.00,VWS V12.07,2013-02-26 08:07:00,
2013-02-26 02:08:00,28.4,25.6,30.02,SE,144,0.0,0.0,89,0.00,,OVC035,0.00,VWS V12.07,2013-02-26 08:08:00,
2013-02-26 02:09:00,28.4,25.6,30.02,SE,144,0.0,0.0,89,0.00,,OVC035,0.00,VWS V12.07,2013-02-26 08:09:00,
2013-02-26 02:12:00,28.4,25.6,30.02,SE,144,0.0,0.0,89,0.00,,OVC035,0.00,VWS V12.07,2013-02-26 08:12:00,
2013-02-26 02:13:00,28.4,25.6,30.02,SE,144,0.0,0.0,89,0.00,,OVC035,0.00,VWS V12.07,2013-02-26 08:13:00,
2013-02-26 02:14:00,28.4,25.6,30.02,SE,144,0.0,0.0,89,0.00,,OVC035,0.00,VWS V12.07,2013-02-26 08:14:00,
2013-02-26 02:18:00,28.4,25.6,30.02,SE,144,0.0,0.0,89,0.00,,OVC035,0.00,VWS V12.07,2013-02-26 08:18:00,
2013-02-26 02:19:00,28.4,25.6,30.02,SE,144,0.0,0.0,89,0.00,,OVC035,0.00,VWS V12.07,2013-02-26 08:19:00,
2013-02-26 02:23:00,28.4,25.6,30.02,SE,144,0.0,0.0,89,0.00,,OVC035,0.00,VWS V12.07,2013-02-26 08:23:00,
2013-02-26 02:24:00,28.4,25.6,30.02,SE,144,0.0,0.0,89,0.00,,OVC035,0.00,VWS V12.07,2013-02-26 08:24:00,
2013-02-26 02:28:00,28.4,25.6,30.02,SE,144,0.0,0.0,89,0.00,,OVC035,0.00,VWS V12.07,2013-02-26 08:28:00,
2013-02-26 02:29:00,28.4,25.6,30.02,SE,144,0.0,0.0,89,0.00,,OVC035,0.00,VWS V12.07,2013-02-26 08:29:00,
2013-02-26 02:33:00,28.4,25.6,30.02,SE,144,0.0,0.0,89,0.00,,OVC035,0.00,VWS V12.07,2013-02-26 08:33:00,
2013-02-26 02:34:00,28.4,25.6,30.02,SE,144,0.0,0.0,89,0.00,,,0.00,VWS V12.07,2013-02-26 08:34:00,
2013-02-26 02:35:00,28.4,25.6,30.02,SE,144,0.0,0.0,89,0.00,,,0.00,VWS V12.07,2013-02-26 08:35:00,
2013-02-26 02:39:00,28.4,25.6,30.02,SE,144,0.0,0.0,89,0.00,,,0.00,VWS V12.07,2013-02-26 08:39:00,
2013-02-26 02:40:00,28.4,25.6,30.02,SE,144,0.0,0.0,89,0.00,,,0.00,VWS V12.07,2013-02-26 08:40:00,
2013-02-26 02:44:00,28.4,25.6,30.02,SE,144,0.0,0.0,89,0.00,,,0.00,VWS V12.07,2013-02-26 08:44:00,
2013-02-26 02:45:00,28.4,25.6,30.02,SE,144,0.0,0.0,89,0.00,,,0.00,VWS V12.07,2013-02-26 08:45:00,
2013-02-26 02:46:00,28.4,25.6,30.02,SE,144,0.0,0.0,89,0.00,,,0.00,VWS V12.07,2013-02-26 08:46:00,
2013-02-26 02:50:00,28.4,25.6,30.02,SE,144,0.0,0.0,89,0.00,,,0.00,VWS V12.07,2013-02-26 08:50:00,
2013-02-26 02:51:00,28.4,25.6,30.02,SE,144,0.0,0.0,89,0.00,,,0.00,VWS V12.07,2013-02-26 08:51:00,
2013-02-26 02:55:00,28.4,25.6,30.02,SE,144,0.0,0.0,89,0.00,,,0.00,VWS V12.07,2013-02-26 08:55:00,
2013-02-26 02:56:00,28.4,25.6,30.02,SE,144,0.0,0.0,89,0.00,,,0.00,VWS V12.07,2013-02-26 08:56:00,
2013-02-26 02:57:00,28.4,25.6,30.02,SE,144,0.0,0.0,89,0.00,,,0.00,VWS V12.07,2013-02-26 08:57:00,
2013-02-26 03:00:00,28.4,25.6,30.02,SE,144,0.0,0.0,89,0.00,,,0.00,VWS V12.07,2013-02-26 09:00:00,
2013-02-26 03:01:00,28.4,25.6,30.02,SE,144,0.0,0.0,89,0.00,,,0.00,VWS V12.07,2013-02-26 09:01:00,
2013-02-26 03:03:00,28.4,25.6,30.02,SE,144,0.0,0.0,89,0.00,,,0.00,VWS V12.07,2013-02-26 09:03:00,
2013-02-26 03:05:00,28.4,25.6,30.02,SE,144,0.0,0.0,89,0.00,,,0.00,VWS V12.07,2013-02-26 09:05:00,
2013-02-26 03:06:00,28.4,25.6,30.02,SE,144,0.0,0.0,89,0.00,,,0.00,VWS V12.07,2013-02-26 09:06:00,
2013-02-26 03:07:00,28.4,25.6,30.02,SE,144,0.0,0.0,89,0.00,,,0.00,VWS V12.07,2013-02-26 09:07:00,
2013-02-26 03:09:00,28.4,25.6,30.02,SE,144,0.0,0.0,89,0.00,,,0.00,VWS V12.07,2013-02-26 09:09:00,
2013-02-26 03:10:00,28.4,25.6,30.02,SE,144,0.0,0.0,89,0.00,,,0.00,VWS V12.07,2013-02-26 09:10:00,
2013-02-26 03:12:00,28.4,25.6,30.02,SE,144,0.0,0.0,89,0.00,,,0.00,VWS V12.07,2013-02-26 09:12:00,
2013-02-26 03:14:00,28.4,25.6,30.02,SE,144,0.0,0.0,89,0.00,,,0.00,VWS V12.07,2013-02-26 09:14:00,
2013-02-26 03:15:00,28.4,25.6,30.02,SE,144,0.0,0.0,89,0.00,,,0.00,VWS V12.07,2013-02-26 09:15:00,
2013-02-26 03:17:00,28.4,25.6,30.01,SE,144,0.0,0.0,89,0.00,,,0.00,VWS V12.07,2013-02-26 09:17:00,
2013-02-26 03:18:00,28.4,25.6,30.01,SE,144,0.0,0.0,89,0.00,,,0.00,VWS V12.07,2013-02-26 09:18:00,
2013-02-26 03:20:00,28.4,25.6,30.01,SE,144,0.0,0.0,89,0.00,,,0.00,VWS V12.07,2013-02-26 09:20:00,
2013-02-26 03:22:00,28.4,25.6,30.01,SE,144,0.0,0.0,89,0.00,,,0.00,VWS V12.07,2013-02-26 09:22:00,
2013-02-26 03:23:00,28.4,25.6,30.01,SE,144,0.0,0.0,89,0.00,,,0.00,VWS V12.07,2013-02-26 09:23:00,
2013-02-26 03:25:00,28.4,25.6,30.01,SE,144,0.0,0.0,89,0.00,,,0.00,VWS V12.07,2013-02-26 09:25:00,
2013-02-26 03:27:00,28.4,25.6,30.01,SE,144,0.0,0.0,89,0.00,,,0.00,VWS V12.07,2013-02-26 09:27:00,
2013-02-26 03:28:00,28.4,25.6,30.01,SE,144,0.0,0.0,89,0.00,,,0.00,VWS V12.07,2013-02-26 09:28:00,
2013-02-26 03:30:00,28.4,25.6,30.01,SE,144,0.0,0.0,89,0.00,,,0.00,VWS V12.07,2013-02-26 09:30:00,
2013-02-26 03:32:00,28.4,25.6,30.01,SE,144,0.0,0.0,89,0.00,,,0.00,VWS V12.07,2013-02-26 09:32:00,
2013-02-26 03:33:00,28.4,25.6,30.01,SE,144,0.0,0.0,89,0.00,,,0.00,VWS V12.07,2013-02-26 09:33:00,
2013-02-26 03:35:00,28.4,25.6,30.01,SE,144,0.0,0.0,89,0.00,,,0.00,VWS V12.07,2013-02-26 09:35:00,
2013-02-26 03:37:00,28.4,25.6,30.01,SE,144,0.0,0.0,89,0.00,,,0.00,VWS V12.07,2013-02-26 09:37:00,
2013-02-26 03:38:00,28.4,25.6,30.01,SE,144,0.0,0.0,89,0.00,,,0.00,VWS V12.07,2013-02-26 09:38:00,
2013-02-26 03:40:00,28.4,25.6,30.01,SE,144,0.0,0.0,89,0.00,,,0.00,VWS V12.07,2013-02-26 09:40:00,
2013-02-26 03:41:00,28.4,25.6,30.01,SE,144,0.0,0.0,89,0.00,,,0.00,VWS V12.07,2013-02-26 09:41:00,
2013-02-26 03:44:00,28.4,25.6,30.01,SE,144,0.0,0.0,89,0.00,,,0.00,VWS V12.07,2013-02-26 09:44:00,
2013-02-26 03:45:00,28.4,25.6,30.01,SE,144,0.0,0.0,89,0.00,,,0.00,VWS V12.07,2013-02-26 09:45:00,
2013-02-26 03:46:00,28.4,25.6,30.01,SE,144,0.0,0.0,89,0.00,,,0.00,VWS V12.07,2013-02-26 09:46:00,
2013-02-26 03:49:00,28.4,25.6,30.01,SE,144,0.0,0.0,89,0.00,,,0.00,VWS V12.07,2013-02-26 09:49:00,
2013-02-26 03:50:00,28.4,25.6,30.01,SE,144,0.0,0.0,89,0.00,,,0.00,VWS V12.07,2013-02-26 09:50:00,
2013-02-26 03:51:00,28.4,25.6,30.01,SE,144,0.0,0.0,89,0.00,,,0.00,VWS V12.07,2013-02-26 09:51:00,
2013-02-26 03:54:00,28.4,25.6,30.01,SE,144,0.0,0.0,89,0.00,,,0.00,VWS V12.07,2013-02-26 09:54:00,
2013-02-26 03:55:00,28.4,25.6,30.01,SE,144,0.0,0.0,89,0.00,,,0.00,VWS V12.07,2013-02-26 09:55:00,
2013-02-26 03:56:00,28.4,25.6,30.01,SE,144,0.0,0.0,89,0.00,,,0.00,VWS V12.07,2013-02-26 09:56:00,
2013-02-26 03:59:00,28.4,25.6,30.01,SE,144,0.0,0.0,89,0.00,,,0.00,VWS V12.07,2013-02-26 09:59:00,
2013-02-26 04:00:00,28.4,25.6,30.00,SE,144,0.0,0.0,89,0.00,,,0.00,VWS V12.07,2013-02-26 10:00:00,
2013-02-26 04:01:00,28.4,25.6,30.00,SE,144,0.0,0.0,89,0.00,,,0.00,VWS V12.07,2013-02-26 10:01:00,
2013-02-26 04:04:00,28.4,25.6,30.00,SE,144,0.0,0.0,89,0.00,,,0.00,VWS V12.07,2013-02-26 10:04:00,
2013-02-26 04:05:00,28.4,25.6,30.00,SE,144,0.0,0.0,89,0.00,,,0.00,VWS V12.07,2013-02-26 10:05:00,
2013-02-26 04:06:00,28.4,25.6,30.00,SE,144,0.0,0.0,89,0.00,,,0.00,VWS V12.07,2013-02-26 10:06:00,
2013-02-26 04:09:00,28.4,25.6,30.00,SE,144,0.0,0.0,89,0.00,,,0.00,VWS V12.07,2013-02-26 10:09:00,
2013-02-26 04:11:00,28.4,25.6,30.00,SE,144,0.0,0.0,89,0.00,,,0.00,VWS V12.07,2013-02-26 10:11:00,
2013-02-26 04:14:00,28.4,25.6,29.99,SE,144,0.0,0.0,89,0.00,,,0.00,VWS V12.07,2013-02-26 10:14:00,
2013-02-26 04:16:00,28.4,25.6,29.99,SE,144,0.0,0.0,89,0.00,,,0.00,VWS V12.07,2013-02-26 10:16:00,
2013-02-26 04:17:00,28.4,25.6,29.99,SE,144,0.0,0.0,89,0.00,,,0.00,VWS V12.07,2013-02-26 10:17:00,
2013-02-26 04:20:00,28.4,25.6,29.99,SE,144,0.0,0.0,89,0.00,,,0.00,VWS V12.07,2013-02-26 10:20:00,
2013-02-26 04:22:00,28.4,25.6,29.99,SE,144,0.0,0.0,89,0.00,,,0.00,VWS V12.07,2013-02-26 10:22:00,
2013-02-26 04:25:00,28.4,25.6,29.99,SE,144,0.0,0.0,89,0.00,,,0.00,VWS V12.07,2013-02-26 10:25:00,
2013-02-26 04:27:00,28.4,25.6,29.99,SE,144,0.0,0.0,89,0.00,,,0.00,VWS V12.07,2013-02-26 10:27:00,
2013-02-26 04:30:00,28.4,25.6,29.99,SE,144,0.0,0.0,89,0.00,,,0.00,VWS V12.07,2013-02-26 10:30:00,
2013-02-26 04:32:00,28.4,25.6,29.99,SE,144,0.0,0.0,89,0.00,,,0.00,VWS V12.07,2013-02-26 10:32:00,
2013-02-26 04:33:00,28.4,25.6,29.99,SE,144,0.0,0.0,89,0.00,,,0.00,VWS V12.07,2013-02-26 10:33:00,
2013-02-26 04:35:00,28.4,25.6,29.99,SE,144,0.0,0.0,89,0.00,,,0.00,VWS V12.07,2013-02-26 10:35:00,
2013-02-26 04:37:00,28.4,25.6,29.99,SE,144,0.0,0.0,89,0.00,,,0.00,VWS V12.07,2013-02-26 10:37:00,
2013-02-26 04:38:00,28.4,25.6,29.99,SE,144,0.0,0.0,89,0.00,,,0.00,VWS V12.07,2013-02-26 10:38:00,
2013-02-26 04:40:00,28.4,25.6,29.99,SE,144,0.0,0.0,89,0.00,,,0.00,VWS V12.07,2013-02-26 10:40:00,
2013-02-26 04:43:00,28.4,25.6,29.99,SE,144,0.0,0.0,89,0.00,,,0.00,VWS V12.07,2013-02-26 10:43:00,
2013-02-26 04:46:00,28.4,25.6,29.99,SE,144,0.0,0.0,89,0.00,,,0.00,VWS V12.07,2013-02-26 10:46:00,
2013-02-26 04:48:00,28.4,25.6,29.99,SE,144,0.0,0.0,89,0.00,,,0.00,VWS V12.07,2013-02-26 10:48:00,
2013-02-26 04:49:00,28.4,25.6,29.99,SE,144,0.0,0.0,89,0.00,,,0.00,VWS V12.07,2013-02-26 10:49:00,
2013-02-26 04:51:00,28.4,25.6,29.99,SE,144,0.0,0.0,89,0.00,,,0.00,VWS V12.07,2013-02-26 10:51:00,
2013-02-26 04:53:00,28.4,25.6,29.99,SE,144,0.0,0.0,89,0.00,,,0.00,VWS V12.07,2013-02-26 10:53:00,
2013-02-26 04:54:00,28.4,25.6,29.99,SE,144,0.0,0.0,89,0.00,,,0.00,VWS V12.07,2013-02-26 10:54:00,
2013-02-26 04:56:00,28.4,25.6,29.99,SE,144,0.0,0.0,89,0.00,,,0.00,VWS V12.07,2013-02-26 10:56:00,
2013-02-26 04:58:00,28.4,25.6,29.99,SE,144,0.0,0.0,89,0.00,,,0.00,VWS V12.07,2013-02-26 10:58:00,
2013-02-26 04:59:00,28.4,25.6,29.99,SE,144,0.0,0.0,89,0.00,,,0.00,VWS V12.07,2013-02-26 10:59:00,
2013-02-26 05:01:00,28.4,25.6,29.99,SE,144,0.0,0.0,89,0.00,,,0.00,VWS V12.07,2013-02-26 11:01:00,
2013-02-26 05:03:00,28.4,25.6,29.99,SE,144,0.0,0.0,89,0.00,,,0.00,VWS V12.07,2013-02-26 11:03:00,
2013-02-26 05:04:00,28.4,25.6,29.99,SE,144,0.0,0.0,89,0.00,,,0.00,VWS V12.07,2013-02-26 11:04:00,
2013-02-26 05:07:00,28.4,25.6,29.99,SE,144,0.0,0.0,89,0.00,,,0.00,VWS V12.07,2013-02-26 11:07:00,
2013-02-26 05:08:00,28.4,25.6,29.99,SE,144,0.0,0.0,89,0.00,,,0.00,VWS V12.07,2013-02-26 11:08:00,
2013-02-26 05:10:00,28.4,25.6,29.99,SE,144,0.0,0.0,89,0.00,,,0.00,VWS V12.07,2013-02-26 11:10:00,
2013-02-26 05:12:00,28.4,25.6,29.99,SE,144,0.0,0.0,89,0.00,,,0.00,VWS V12.07,2013-02-26 11:12:00,
2013-02-26 05:13:00,28.4,25.6,29.99,SE,144,0.0,0.0,89,0.00,,,0.00,VWS V12.07,2013-02-26 11:13:00,
2013-02-26 05:15:00,28.4,25.6,29.99,SE,144,0.0,0.0,89,0.00,,,0.00,VWS V12.07,2013-02-26 11:15:00,
2013-02-26 05:17:00,28.4,25.6,29.99,SE,144,0.0,0.0,89,0.00,,,0.00,VWS V12.07,2013-02-26 11:17:00,
2013-02-26 05:20:00,28.4,25.6,29.99,SE,144,0.0,0.0,89,0.00,,,0.00,VWS V12.07,2013-02-26 11:20:00,
2013-02-26 05:21:00,28.4,25.6,29.99,SE,144,0.0,0.0,89,0.00,,,0.00,VWS V12.07,2013-02-26 11:21:00,
2013-02-26 05:22:00,28.4,25.6,29.99,SE,144,0.0,0.0,89,0.00,,,0.00,VWS V12.07,2013-02-26 11:22:00,
2013-02-26 05:25:00,28.4,25.6,29.99,SE,144,0.0,0.0,89,0.00,,,0.00,VWS V12.07,2013-02-26 11:25:00,
2013-02-26 05:26:00,28.4,25.6,29.99,SE,144,0.0,0.0,89,0.00,,,0.00,VWS V12.07,2013-02-26 11:26:00,
2013-02-26 05:28:00,28.4,25.6,29.99,SE,144,0.0,0.0,89,0.00,,,0.00,VWS V12.07,2013-02-26 11:28:00,
2013-02-26 05:30:00,28.4,25.6,29.98,SE,144,0.0,0.0,89,0.00,,,0.00,VWS V12.07,2013-02-26 11:30:00,
2013-02-26 05:31:00,28.4,25.6,29.98,SE,144,0.0,0.0,89,0.00,,,0.00,VWS V12.07,2013-02-26 11:31:00,
2013-02-26 05:33:00,28.4,25.6,29.98,SE,144,0.0,0.0,89,0.00,,,0.00,VWS V12.07,2013-02-26 11:33:00,
2013-02-26 05:35:00,28.4,25.6,29.98,SE,144,0.0,0.0,89,0.00,,,0.00,VWS V12.07,2013-02-26 11:35:00,
2013-02-26 05:36:00,28.4,25.6,29.98,SE,144,0.0,0.0,89,0.00,,,0.00,VWS V12.07,2013-02-26 11:36:00,
2013-02-26 05:38:00,28.4,25.6,29.98,SE,144,0.0,0.0,89,0.00,,,0.00,VWS V12.07,2013-02-26 11:38:00,
2013-02-26 05:40:00,28.4,25.6,29.98,SE,144,0.0,0.0,89,0.00,,,0.00,VWS V12.07,2013-02-26 11:40:00,
2013-02-26 05:41:00,28.4,25.6,29.98,SE,144,0.0,0.0,89,0.00,,,0.00,VWS V12.07,2013-02-26 11:41:00,
2013-02-26 05:42:00,28.4,25.6,29.98,SE,144,0.0,0.0,89,0.00,,,0.00,VWS V12.07,2013-02-26 11:42:00,
2013-02-26 05:43:00,28.4,25.6,29.98,SE,144,0.0,0.0,89,0.00,,,0.00,VWS V12.07,2013-02-26 11:43:00,
2013-02-26 05:45:00,28.4,25.6,29.99,SE,144,0.0,0.0,89,0.00,,,0.00,VWS V12.07,2013-02-26 11:45:00,
2013-02-26 05:46:00,28.4,25.6,29.99,SE,144,0.0,0.0,89,0.00,,,0.00,VWS V12.07,2013-02-26 11:46:00,
2013-02-26 05:47:00,28.4,25.6,29.99,SE,144,0.0,0.0,89,0.00,,,0.00,VWS V12.07,2013-02-26 11:47:00,
2013-02-26 05:48:00,28.4,25.6,29.99,SE,144,0.0,0.0,89,0.00,,,0.00,VWS V12.07,2013-02-26 11:48:00,
2013-02-26 05:50:00,28.4,25.6,29.99,SE,144,0.0,0.0,89,0.00,,,0.00,VWS V12.07,2013-02-26 11:50:00,
2013-02-26 05:51:00,28.4,25.6,29.99,SE,144,0.0,0.0,89,0.00,,,0.00,VWS V12.07,2013-02-26 11:51:00,
2013-02-26 05:52:00,28.4,25.6,29.99,SE,144,0.0,0.0,89,0.00,,,0.00,VWS V12.07,2013-02-26 11:52:00,
2013-02-26 05:53:00,28.4,25.6,29.99,SE,144,0.0,0.0,89,0.00,,,0.00,VWS V12.07,2013-02-26 11:53:00,
2013-02-26 05:55:00,28.4,25.6,29.99,SE,144,0.0,0.0,89,0.00,,,0.00,VWS V12.07,2013-02-26 11:55:00,
2013-02-26 05:56:00,28.4,25.6,29.99,SE,144,0.0,0.0,89,0.00,,,0.00,VWS V12.07,2013-02-26 11:56:00,
2013-02-26 05:58:00,28.4,25.6,29.99,SE,144,0.0,0.0,89,0.00,,,0.00,VWS V12.07,2013-02-26 11:58:00,
2013-02-26 05:59:00,28.4,25.6,29.99,SE,144,0.0,0.0,89,0.00,,,0.00,VWS V12.07,2013-02-26 11:59:00,
2013-02-26 06:01:00,28.4,25.6,29.99,SE,144,0.0,0.0,89,0.00,,,0.00,VWS V12.07,2013-02-26 12:01:00,
2013-02-26 06:03:00,28.4,25.6,29.99,SE,144,0.0,0.0,89,0.00,,,0.00,VWS V12.07,2013-02-26 12:03:00,
2013-02-26 06:04:00,28.4,25.6,29.99,SE,144,0.0,0.0,89,0.00,,,0.00,VWS V12.07,2013-02-26 12:04:00,
2013-02-26 06:06:00,28.4,25.6,29.99,SE,144,0.0,0.0,89,0.00,,,0.00,VWS V12.07,2013-02-26 12:06:00,
2013-02-26 06:07:00,28.4,25.6,29.99,SE,144,0.0,0.0,89,0.00,,,0.00,VWS V12.07,2013-02-26 12:07:00,
2013-02-26 06:08:00,28.4,25.6,29.99,SE,144,0.0,0.0,89,0.00,,,0.00,VWS V12.07,2013-02-26 12:08:00,
2013-02-26 06:09:00,28.4,25.6,29.99,SE,144,0.0,0.0,89,0.00,,,0.00,VWS V12.07,2013-02-26 12:09:00,
2013-02-26 06:12:00,28.4,25.6,29.99,SE,144,0.0,0.0,89,0.00,,,0.00,VWS V12.07,2013-02-26 12:12:00,
2013-02-26 06:13:00,28.4,25.6,29.99,SE,144,0.0,0.0,89,0.00,,,0.00,VWS V12.07,2013-02-26 12:13:00,
2013-02-26 06:15:00,28.4,25.6,29.99,SE,144,0.0,0.0,89,0.00,,,0.00,VWS V12.07,2013-02-26 12:15:00,
2013-02-26 06:17:00,28.4,25.6,29.99,SE,144,0.0,0.0,89,0.00,,,0.00,VWS V12.07,2013-02-26 12:17:00,
2013-02-26 06:19:00,28.4,25.6,29.99,SE,144,0.0,0.0,89,0.00,,,0.00,VWS V12.07,2013-02-26 12:19:00,
2013-02-26 06:21:00,28.4,25.6,29.99,SE,144,0.0,0.0,89,0.00,,,0.00,VWS V12.07,2013-02-26 12:21:00,
2013-02-26 06:22:00,28.4,25.6,29.99,SE,144,0.0,0.0,89,0.00,,,0.00,VWS V12.07,2013-02-26 12:22:00,
2013-02-26 06:23:00,28.4,25.6,29.99,SE,144,0.0,0.0,89,0.00,,,0.00,VWS V12.07,2013-02-26 12:23:00,
2013-02-26 06:24:00,28.4,25.6,29.99,SE,144,0.0,0.0,89,0.00,,,0.00,VWS V12.07,2013-02-26 12:24:00,
2013-02-26 06:26:00,28.4,25.6,29.99,SE,144,0.0,0.0,89,0.00,,,0.00,VWS V12.07,2013-02-26 12:26:00,
2013-02-26 06:28:00,28.4,25.6,29.99,SE,144,0.0,0.0,89,0.00,,,0.00,VWS V12.07,2013-02-26 12:28:00,
2013-02-26 06:29:00,28.4,25.6,29.99,SE,144,0.0,0.0,89,0.00,,,0.00,VWS V12.07,2013-02-26 12:29:00,
2013-02-26 06:32:00,28.4,25.6,29.99,SE,144,0.0,0.0,89,0.00,,,0.00,VWS V12.07,2013-02-26 12:32:00,
2013-02-26 06:33:00,28.4,25.6,29.99,SE,144,0.0,0.0,89,0.00,,,0.00,VWS V12.07,2013-02-26 12:33:00,
2013-02-26 06:34:00,28.4,25.6,29.99,SE,144,0.0,0.0,89,0.00,,,0.00,VWS V12.07,2013-02-26 12:34:00,
2013-02-26 06:37:00,28.4,25.6,29.99,SE,144,0.0,0.0,89,0.00,,,0.00,VWS V12.07,2013-02-26 12:37:00,
2013-02-26 06:38:00,28.4,25.6,29.99,SE,144,0.0,0.0,89,0.00,,,0.00,VWS V12.07,2013-02-26 12:38:00,
2013-02-26 06:39:00,28.4,25.6,29.99,SE,144,0.0,0.0,89,0.00,,,0.00,VWS V12.07,2013-02-26 12:39:00,
2013-02-26 06:42:00,28.4,25.6,29.99,SE,144,0.0,0.0,89,0.00,,,0.00,VWS V12.07,2013-02-26 12:42:00,
2013-02-26 06:43:00,28.4,25.6,29.99,SE,144,0.0,0.0,89,0.00,,,0.00,VWS V12.07,2013-02-26 12:43:00,
2013-02-26 06:44:00,28.4,25.6,29.99,SE,144,0.0,0.0,89,0.00,,,0.00,VWS V12.07,2013-02-26 12:44:00,
2013-02-26 06:45:00,28.4,25.6,30.01,SE,144,0.0,0.0,89,0.00,,,0.00,VWS V12.07,2013-02-26 12:45:00,
2013-02-26 06:47:00,28.4,25.6,30.01,SE,144,0.0,0.0,89,0.00,,,0.00,VWS V12.07,2013-02-26 12:47:00,
2013-02-26 06:48:00,28.4,25.6,30.01,SE,144,0.0,0.0,89,0.00,,,0.00,VWS V12.07,2013-02-26 12:48:00,
2013-02-26 06:49:00,28.4,25.6,30.01,SE,144,0.0,0.0,89,0.00,,,0.00,VWS V12.07,2013-02-26 12:49:00,
2013-02-26 06:51:00,28.4,25.6,30.01,SE,144,0.0,0.0,89,0.00,,,0.00,VWS V12.07,2013-02-26 12:51:00,
2013-02-26 06:52:00,28.4,25.6,30.01,SE,144,0.0,0.0,89,0.00,,,0.00,VWS V12.07,2013-02-26 12:52:00,
2013-02-26 06:53:00,28.4,25.6,30.01,SE,144,0.0,0.0,89,0.00,,,0.00,VWS V12.07,2013-02-26 12:53:00,
2013-02-26 06:54:00,28.4,25.6,30.01,SE,144,0.0,0.0,89,0.00,,,0.00,VWS V12.07,2013-02-26 12:54:00,
2013-02-26 06:56:00,28.4,25.6,30.01,SE,144,0.0,0.0,89,0.00,,,0.00,VWS V12.07,2013-02-26 12:56:00,
2013-02-26 06:57:00,28.4,25.6,30.01,SE,144,0.0,0.0,89,0.00,,,0.00,VWS V12.07,2013-02-26 12:57:00,
2013-02-26 06:59:00,28.4,25.6,30.01,SE,144,0.0,0.0,89,0.00,,,0.00,VWS V12.07,2013-02-26 12:59:00,
2013-02-26 07:01:00,28.4,25.6,30.01,SE,144,0.0,0.0,89,0.00,,,0.00,VWS V12.07,2013-02-26 13:01:00,
2013-02-26 07:03:00,28.4,25.6,30.01,SE,144,0.0,0.0,89,0.00,,,0.00,VWS V12.07,2013-02-26 13:03:00,
2013-02-26 07:04:00,28.4,25.6,30.01,SE,144,0.0,0.0,89,0.00,,,0.00,VWS V12.07,2013-02-26 13:04:00,
2013-02-26 07:05:00,28.4,25.6,30.01,SE,144,0.0,0.0,89,0.00,,,0.00,VWS V12.07,2013-02-26 13:05:00,
2013-02-26 07:06:00,28.4,25.6,30.01,SE,144,0.0,0.0,89,0.00,,,0.00,VWS V12.07,2013-02-26 13:06:00,
2013-02-26 07:08:00,28.4,25.6,30.01,SE,144,0.0,0.0,89,0.00,,,0.00,VWS V12.07,2013-02-26 13:08:00,
2013-02-26 07:09:00,28.4,25.6,30.01,SE,144,0.0,0.0,89,0.00,,,0.00,VWS V12.07,2013-02-26 13:09:00,
2013-02-26 07:10:00,28.4,25.6,30.01,SE,144,0.0,0.0,89,0.00,,,0.00,VWS V12.07,2013-02-26 13:10:00,
2013-02-26 07:12:00,28.4,25.6,30.01,SE,144,0.0,0.0,89,0.00,,,0.00,VWS V12.07,2013-02-26 13:12:00,
2013-02-26 07:13:00,20.2,19.2,30.01,NNE,22,1.0,1.0,96,0.00,,,0.00,VWS V12.07,2013-02-26 13:13:00,
2013-02-26 07:14:00,20.2,19.2,30.01,NNE,22,1.0,2.0,96,0.00,,,0.00,VWS V12.07,2013-02-26 13:14:00,
2013-02-26 07:15:00,20.3,19.3,30.03,NNE,22,0.0,2.0,96,0.00,,,0.00,VWS V12.07,2013-02-26 13:15:00,
2013-02-26 07:17:00,20.3,19.3,30.03,NNE,22,1.0,2.0,96,0.00,,,0.00,VWS V12.07,2013-02-26 13:17:00,
2013-02-26 07:18:00,20.3,19.3,30.03,NNE,22,1.0,0.0,96,0.00,,,0.00,VWS V12.07,2013-02-26 13:18:00,
2013-02-26 07:19:00,20.3,19.3,30.03,NNE,22,1.0,2.0,96,0.00,,,0.00,VWS V12.07,2013-02-26 13:19:00,
2013-02-26 07:21:00,20.3,19.3,30.03,NNE,22,2.0,2.0,96,0.00,,,0.00,VWS V12.07,2013-02-26 13:21:00,
2013-02-26 07:22:00,20.3,19.3,30.03,NNE,22,1.0,2.0,96,0.00,,,0.00,VWS V12.07,2013-02-26 13:22:00,
2013-02-26 07:23:00,20.5,19.5,30.03,NNE,22,1.0,2.0,96,0.00,,,0.00,VWS V12.07,2013-02-26 13:23:00,
2013-02-26 07:25:00,20.5,19.5,30.03,NNE,22,1.0,2.0,96,0.00,,,0.00,VWS V12.07,2013-02-26 13:25:00,
2013-02-26 07:26:00,20.6,19.6,30.03,NNE,18,1.0,3.0,96,0.00,,,0.00,VWS V12.07,2013-02-26 13:26:00,
2013-02-26 07:27:00,20.6,19.6,30.03,NNE,18,1.0,3.0,96,0.00,,,0.00,VWS V12.07,2013-02-26 13:27:00,
2013-02-26 07:28:00,20.6,19.6,30.03,NNE,18,2.0,3.0,96,0.00,,,0.00,VWS V12.07,2013-02-26 13:28:00,
2013-02-26 07:30:00,20.6,19.6,30.02,NNE,18,1.0,3.0,96,0.00,,,0.00,VWS V12.07,2013-02-26 13:30:00,
2013-02-26 07:31:00,20.6,19.6,30.02,NNE,18,1.0,3.0,96,0.00,,,0.00,VWS V12.07,2013-02-26 13:31:00,
2013-02-26 07:32:00,20.6,19.6,30.02,NNE,18,0.0,3.0,96,0.00,,,0.00,VWS V12.07,2013-02-26 13:32:00,
2013-02-26 07:34:00,20.6,19.6,30.02,NNE,18,2.0,3.0,96,0.00,,,0.00,VWS V12.07,2013-02-26 13:34:00,
2013-02-26 07:35:00,20.6,19.6,30.02,NNE,18,0.0,3.0,96,0.00,,,0.00,VWS V12.07,2013-02-26 13:35:00,
2013-02-26 07:36:00,20.8,19.8,30.02,NNE,18,0.0,3.0,96,0.00,,,0.00,VWS V12.07,2013-02-26 13:36:00,
2013-02-26 07:37:00,20.8,19.8,30.02,NNE,18,0.0,3.0,96,0.00,,,0.00,VWS V12.07,2013-02-26 13:37:00,
2013-02-26 07:39:00,20.8,19.8,30.02,NNE,18,0.0,2.0,96,0.00,,,0.00,VWS V12.07,2013-02-26 13:39:00,
2013-02-26 07:41:00,21.0,20.0,30.02,NNE,18,1.0,2.0,96,0.00,,,0.00,VWS V12.07,2013-02-26 13:41:00,
2013-02-26 07:42:00,21.0,20.0,30.02,NNE,18,1.0,2.0,96,0.00,,,0.00,VWS V12.07,2013-02-26 13:42:00,
2013-02-26 07:44:00,21.0,20.0,30.02,NNE,18,1.0,3.0,96,0.00,,,0.00,VWS V12.07,2013-02-26 13:44:00,
2013-02-26 07:46:00,21.0,20.0,30.01,NNE,18,1.0,3.0,96,0.00,,,0.00,VWS V12.07,2013-02-26 13:46:00,
2013-02-26 07:49:00,21.1,20.1,30.01,NNE,14,1.0,0.0,96,0.00,,,0.00,VWS V12.07,2013-02-26 13:49:00,
2013-02-26 07:50:00,21.3,20.3,30.01,NNE,14,1.0,3.0,96,0.00,,,0.00,VWS V12.07,2013-02-26 13:50:00,
2013-02-26 07:51:00,21.3,20.3,30.01,NNE,14,0.0,3.0,96,0.00,,,0.00,VWS V12.07,2013-02-26 13:51:00,
2013-02-26 07:52:00,21.3,20.3,30.01,NNE,14,1.0,3.0,96,0.00,,,0.00,VWS V12.07,2013-02-26 13:52:00,
2013-02-26 07:54:00,21.4,20.4,30.01,NNE,14,1.0,3.0,96,0.00,,,0.00,VWS V12.07,2013-02-26 13:54:00,
2013-02-26 07:55:00,21.6,20.6,30.01,North,0,0.0,3.0,96,0.00,,,0.00,VWS V12.07,2013-02-26 13:55:00,
2013-02-26 07:57:00,21.6,20.6,30.01,North,0,0.0,3.0,96,0.00,,,0.00,VWS V12.07,2013-02-26 13:57:00,
2013-02-26 07:59:00,21.8,20.8,30.01,North,0,1.0,1.0,96,0.00,,,0.00,VWS V12.07,2013-02-26 13:59:00,
2013-02-26 08:00:00,21.9,20.9,30.01,North,0,0.0,2.0,96,0.00,,,0.00,VWS V12.07,2013-02-26 14:00:00,
2013-02-26 08:02:00,21.9,20.9,30.01,North,0,0.0,2.0,96,0.00,,,0.00,VWS V12.07,2013-02-26 14:02:00,
2013-02-26 08:03:00,21.9,20.9,30.01,NNE,33,3.0,3.0,96,0.00,,,0.00,VWS V12.07,2013-02-26 14:03:00,
2013-02-26 08:04:00,22.1,21.1,30.01,NNE,33,2.0,3.0,96,0.00,,,0.00,VWS V12.07,2013-02-26 14:04:00,
2013-02-26 08:07:00,22.2,21.2,30.01,NNE,33,1.0,3.0,96,0.00,,,0.00,VWS V12.07,2013-02-26 14:07:00,
2013-02-26 08:08:00,22.4,21.4,30.01,NNE,33,2.0,3.0,96,0.00,,,0.00,VWS V12.07,2013-02-26 14:08:00,
2013-02-26 08:09:00,22.5,21.5,30.01,NNE,33,0.0,3.0,96,0.00,,,0.00,VWS V12.07,2013-02-26 14:09:00,
2013-02-26 08:12:00,22.9,21.9,30.01,NNE,27,0.0,3.0,96,0.00,,,0.00,VWS V12.07,2013-02-26 14:12:00,
2013-02-26 08:13:00,23.0,21.8,30.01,NNE,30,3.0,4.0,95,0.00,,,0.00,VWS V12.07,2013-02-26 14:13:00,
2013-02-26 08:14:00,23.2,22.0,30.01,NNE,24,2.0,4.0,95,0.00,,,0.00,VWS V12.07,2013-02-26 14:14:00,
2013-02-26 08:17:00,23.5,22.3,30.01,NNE,26,0.0,4.0,95,0.00,,,0.00,VWS V12.07,2013-02-26 14:17:00,
2013-02-26 08:18:00,23.6,22.4,30.01,NNE,26,1.0,4.0,95,0.00,,,0.00,VWS V12.07,2013-02-26 14:18:00,
2013-02-26 08:19:00,23.6,22.1,30.01,NNE,26,0.0,2.0,94,0.00,,,0.00,VWS V12.07,2013-02-26 14:19:00,
2013-02-26 08:22:00,23.9,22.4,30.01,North,0,0.0,3.0,94,0.00,,,0.00,VWS V12.07,2013-02-26 14:22:00,
2013-02-26 08:23:00,23.9,22.4,30.01,North,1,3.0,4.0,94,0.00,,,0.00,VWS V12.07,2013-02-26 14:23:00,
2013-02-26 08:24:00,24.1,22.4,30.01,NNE,17,4.0,4.0,93,0.00,,,0.00,VWS V12.07,2013-02-26 14:24:00,
2013-02-26 08:27:00,24.4,22.7,30.01,NNE,18,0.0,4.0,93,0.00,,,0.00,VWS V12.07,2013-02-26 14:27:00,
2013-02-26 08:28:00,24.4,22.7,30.01,NNE,18,0.0,4.0,93,0.00,,,0.00,VWS V12.07,2013-02-26 14:28:00,
2013-02-26 08:29:00,24.5,22.5,30.01,NNE,18,0.0,2.0,92,0.00,,,0.00,VWS V12.07,2013-02-26 14:29:00,
2013-02-26 08:33:00,25.0,22.8,30.01,NNE,20,3.0,5.0,91,0.00,,,0.00,VWS V12.07,2013-02-26 14:33:00,
2013-02-26 08:34:00,25.1,22.9,30.01,NE,39,0.0,5.0,91,0.00,,,0.00,VWS V12.07,2013-02-26 14:34:00,
2013-02-26 08:35:00,25.1,22.9,30.01,NE,39,1.0,5.0,91,0.00,,,0.00,VWS V12.07,2013-02-26 14:35:00,
2013-02-26 08:38:00,25.4,22.9,30.01,East,83,0.0,5.0,90,0.00,,,0.00,VWS V12.07,2013-02-26 14:38:00,
2013-02-26 08:40:00,25.6,22.8,30.01,NNE,23,5.0,9.0,89,0.00,,,0.00,VWS V12.07,2013-02-26 14:40:00,
2013-02-26 08:43:00,25.7,22.6,30.01,East,91,3.0,9.0,88,0.00,,,0.00,VWS V12.07,2013-02-26 14:43:00,
2013-02-26 08:45:00,25.7,22.6,30.01,North,1,1.0,9.0,88,0.00,,,0.00,VWS V12.07,2013-02-26 14:45:00,
2013-02-26 08:48:00,26.0,22.7,30.01,East,88,2.0,9.0,87,0.00,,BKN007,0.00,VWS V12.07,2013-02-26 14:48:00,
2013-02-26 08:49:00,26.1,22.8,30.01,NE,52,0.0,3.0,87,0.00,,BKN007,0.00,VWS V12.07,2013-02-26 14:49:00,
2013-02-26 08:50:00,26.1,22.8,30.01,NE,52,2.0,3.0,87,0.00,,BKN007,0.00,VWS V12.07,2013-02-26 14:50:00,
2013-02-26 08:53:00,26.4,22.8,30.01,East,91,2.0,5.0,86,0.00,,BKN007,0.00,VWS V12.07,2013-02-26 14:53:00,
2013-02-26 08:54:00,26.6,23.0,30.01,NNE,32,1.0,5.0,86,0.00,,BKN007,0.00,VWS V12.07,2013-02-26 14:54:00,
2013-02-26 08:55:00,26.6,23.0,30.01,NNE,12,6.0,6.0,86,0.00,,BKN007,0.00,VWS V12.07,2013-02-26 14:55:00,
2013-02-26 08:58:00,26.6,22.7,30.01,NNE,15,5.0,9.0,85,0.00,,BKN007,0.00,VWS V12.07,2013-02-26 14:58:00,
2013-02-26 08:59:00,26.6,22.7,30.01,NE,37,2.0,7.0,85,0.00,,BKN007,0.00,VWS V12.07,2013-02-26 14:59:00,
2013-02-26 09:00:00,26.6,22.7,30.00,ENE,60,1.0,7.0,85,0.00,,BKN007,0.00,VWS V12.07,2013-02-26 15:00:00,
2013-02-26 09:04:00,26.6,23.0,30.00,ESE,116,2.0,7.0,86,0.00,,BKN007,0.00,VWS V12.07,2013-02-26 15:04:00,
2013-02-26 09:05:00,26.6,23.0,30.00,East,83,2.0,7.0,86,0.00,,BKN007,0.00,VWS V12.07,2013-02-26 15:05:00,
2013-02-26 09:09:00,26.4,22.8,30.00,SE,138,1.0,10.0,86,0.00,,BKN007,0.00,VWS V12.07,2013-02-26 15:09:00,
2013-02-26 09:10:00,26.4,22.8,30.00,North,0,2.0,9.0,86,0.00,,BKN007,0.00,VWS V12.07,2013-02-26 15:10:00,
2013-02-26 09:11:00,26.3,22.7,30.00,ENE,78,2.0,9.0,86,0.00,,BKN007,0.00,VWS V12.07,2013-02-26 15:11:00,
2013-02-26 09:14:00,26.4,22.8,30.00,NE,48,2.0,9.0,86,0.00,,BKN007,0.00,VWS V12.07,2013-02-26 15:14:00,
2013-02-26 09:15:00,26.4,23.1,30.01,ENE,68,4.0,9.0,87,0.00,,BKN007,0.00,VWS V12.07,2013-02-26 15:15:00,
2013-02-26 09:16:00,26.4,23.1,30.01,ESE,103,5.0,9.0,87,0.00,,BKN007,0.00,VWS V12.07,2013-02-26 15:16:00,
2013-02-26 09:19:00,26.6,23.3,30.01,NE,45,3.0,5.0,87,0.00,,BKN007,0.00,VWS V12.07,2013-02-26 15:19:00,
2013-02-26 09:20:00,26.7,23.4,30.01,NE,53,1.0,5.0,87,0.00,,BKN007,0.00,VWS V12.07,2013-02-26 15:20:00,
2013-02-26 09:21:00,26.7,23.4,30.01,ENE,58,0.0,5.0,87,0.00,,BKN007,0.00,VWS V12.07,2013-02-26 15:21:00,
2013-02-26 09:24:00,27.2,23.9,30.01,North,11,0.0,5.0,87,0.00,,BKN007,0.00,VWS V12.07,2013-02-26 15:24:00,
2013-02-26 09:25:00,27.2,23.9,30.01,North,11,0.0,5.0,87,0.00,,BKN007,0.00,VWS V12.07,2013-02-26 15:25:00,
2013-02-26 09:26:00,27.3,24.0,30.01,North,11,2.0,5.0,87,0.00,,BKN007,0.00,VWS V12.07,2013-02-26 15:26:00,
2013-02-26 09:29:00,27.3,23.1,30.00,ENE,64,2.0,7.0,84,0.00,,BKN007,0.00,VWS V12.07,2013-02-26 15:29:00,
2013-02-26 09:30:00,27.3,23.7,30.00,ENE,64,1.0,7.0,86,0.00,,BKN007,0.00,VWS V12.07,2013-02-26 15:30:00,
2013-02-26 09:31:00,27.3,23.7,30.00,ENE,65,0.0,7.0,86,0.00,,BKN007,0.00,VWS V12.07,2013-02-26 15:31:00,
2013-02-26 09:35:00,27.5,23.9,30.00,East,98,3.0,7.0,86,0.00,,OVC026,0.00,VWS V12.07,2013-02-26 15:35:00,
2013-02-26 09:36:00,27.5,23.9,30.00,East,82,1.0,7.0,86,0.00,,OVC026,0.00,VWS V12.07,2013-02-26 15:36:00,
2013-02-26 09:40:00,27.5,23.9,30.00,NE,49,2.0,7.0,86,0.00,,OVC026,0.00,VWS V12.07,2013-02-26 15:40:00,
2013-02-26 09:41:00,27.5,23.9,30.00,NE,51,3.0,7.0,86,0.00,,OVC026,0.00,VWS V12.07,2013-02-26 15:41:00,
2013-02-26 09:43:00,27.5,23.9,30.00,ENE,60,0.0,7.0,86,0.00,,OVC026,0.00,VWS V12.07,2013-02-26 15:43:00,
2013-02-26 09:45:00,27.5,23.9,30.00,East,89,1.0,7.0,86,0.00,,OVC026,0.00,VWS V12.07,2013-02-26 15:45:00,
2013-02-26 09:46:00,27.5,23.9,30.00,East,89,1.0,7.0,86,0.00,,OVC026,0.00,VWS V12.07,2013-02-26 15:46:00,
2013-02-26 09:47:00,27.5,23.9,30.00,ESE,120,1.0,7.0,86,0.00,,OVC026,0.00,VWS V12.07,2013-02-26 15:47:00,
2013-02-26 09:48:00,27.6,24.2,30.00,East,96,2.0,7.0,87,0.00,,OVC026,0.00,VWS V12.07,2013-02-26 15:48:00,
2013-02-26 09:50:00,27.6,24.0,30.00,East,91,2.0,6.0,86,0.00,,OVC007,0.00,VWS V12.07,2013-02-26 15:50:00,
2013-02-26 09:51:00,27.6,24.0,30.00,East,91,1.0,6.0,86,0.00,,OVC007,0.00,VWS V12.07,2013-02-26 15:51:00,
2013-02-26 09:52:00,27.6,24.2,30.00,East,82,1.0,6.0,87,0.00,,OVC007,0.00,VWS V12.07,2013-02-26 15:52:00,
2013-02-26 09:53:00,27.6,24.2,30.00,East,82,0.0,6.0,87,0.00,,OVC007,0.00,VWS V12.07,2013-02-26 15:53:00,
2013-02-26 09:56:00,27.8,24.4,30.00,NNE,27,1.0,6.0,87,0.00,,OVC007,0.00,VWS V12.07,2013-02-26 15:56:00,
2013-02-26 09:58:00,27.8,24.4,30.00,NNE,17,2.0,6.0,87,0.00,,OVC007,0.00,VWS V12.07,2013-02-26 15:58:00,
2013-02-26 10:01:00,27.8,24.2,30.00,ENE,71,1.0,10.0,86,0.00,,OVC007,0.00,VWS V12.07,2013-02-26 16:01:00,
2013-02-26 10:03:00,27.8,24.4,30.00,NE,46,1.0,10.0,87,0.00,,OVC007,0.00,VWS V12.07,2013-02-26 16:03:00,
2013-02-26 10:06:00,27.8,24.4,30.00,ENE,71,1.0,10.0,87,0.00,,OVC007,0.00,VWS V12.07,2013-02-26 16:06:00,
2013-02-26 10:07:00,27.8,24.4,30.00,NNW,342,3.0,10.0,87,0.00,,OVC007,0.00,VWS V12.07,2013-02-26 16:07:00,
2013-02-26 10:08:00,27.9,24.5,30.00,NE,51,2.0,10.0,87,0.00,,OVC007,0.00,VWS V12.07,2013-02-26 16:08:00,
2013-02-26 10:11:00,27.9,24.5,30.00,NE,56,3.0,4.0,87,0.00,,OVC007,0.00,VWS V12.07,2013-02-26 16:11:00,
2013-02-26 10:12:00,27.9,24.5,30.00,NE,56,2.0,4.0,87,0.00,,OVC007,0.00,VWS V12.07,2013-02-26 16:12:00,
2013-02-26 10:13:00,27.9,24.3,30.00,NE,56,0.0,4.0,86,0.00,,OVC007,0.00,VWS V12.07,2013-02-26 16:13:00,
2013-02-26 10:17:00,28.1,24.7,30.00,NE,46,1.0,4.0,87,0.00,,OVC007,0.00,VWS V12.07,2013-02-26 16:17:00,
2013-02-26 10:18:00,28.2,24.8,30.00,NE,46,1.0,4.0,87,0.00,,OVC007,0.00,VWS V12.07,2013-02-26 16:18:00,
2013-02-26 10:22:00,28.4,24.8,30.00,NNE,25,0.0,4.0,86,0.00,,OVC007,0.00,VWS V12.07,2013-02-26 16:22:00,
2013-02-26 10:23:00,28.4,25.0,30.00,NNE,25,0.0,4.0,87,0.00,,OVC007,0.00,VWS V12.07,2013-02-26 16:23:00,
2013-02-26 10:24:00,28.4,25.0,30.00,NNE,13,2.0,4.0,87,0.00,,OVC007,0.00,VWS V12.07,2013-02-26 16:24:00,
2013-02-26 10:27:00,28.5,24.9,30.00,East,99,1.0,5.0,86,0.00,,OVC007,0.00,VWS V12.07,2013-02-26 16:27:00,
2013-02-26 10:28:00,28.7,25.0,30.00,ENE,72,2.0,5.0,86,0.00,,OVC007,0.00,VWS V12.07,2013-02-26 16:28:00,
2013-02-26 10:29:00,28.7,25.0,29.98,North,1,3.0,7.0,86,0.00,,OVC007,0.00,VWS V12.07,2013-02-26 16:29:00,
2013-02-26 10:32:00,28.8,25.1,29.98,NNE,24,1.0,7.0,86,0.00,,OVC007,0.00,VWS V12.07,2013-02-26 16:32:00,
2013-02-26 10:33:00,28.8,25.1,29.98,ENE,75,5.0,7.0,86,0.00,,OVC007,0.00,VWS V12.07,2013-02-26 16:33:00,
2013-02-26 10:34:00,29.0,25.1,29.98,South,180,1.0,7.0,85,0.00,,OVC021,0.00,VWS V12.07,2013-02-26 16:34:00,
2013-02-26 10:38:00,29.1,25.2,29.98,ENE,65,3.0,7.0,85,0.00,,OVC021,0.00,VWS V12.07,2013-02-26 16:38:00,
2013-02-26 10:39:00,29.1,25.2,29.98,ENE,67,4.0,7.0,85,0.00,,OVC021,0.00,VWS V12.07,2013-02-26 16:39:00,
2013-02-26 10:40:00,29.1,25.2,29.98,ENE,77,2.0,7.0,85,0.00,,OVC021,0.00,VWS V12.07,2013-02-26 16:40:00,
2013-02-26 10:43:00,29.4,25.5,29.98,NE,37,2.0,7.0,85,0.00,,OVC021,0.00,VWS V12.07,2013-02-26 16:43:00,
2013-02-26 10:44:00,29.4,25.5,29.98,North,355,2.0,7.0,85,0.00,,OVC021,0.00,VWS V12.07,2013-02-26 16:44:00,
2013-02-26 10:45:00,29.4,25.2,29.98,NE,56,1.0,7.0,84,0.00,,OVC021,0.00,VWS V12.07,2013-02-26 16:45:00,
2013-02-26 10:48:00,29.7,25.5,29.98,NNE,32,5.0,7.0,84,0.00,,OVC023,0.00,VWS V12.07,2013-02-26 16:48:00,
2013-02-26 10:49:00,29.7,25.2,29.98,North,9,3.0,9.0,83,0.00,,OVC023,0.00,VWS V12.07,2013-02-26 16:49:00,
2013-02-26 10:50:00,29.7,25.2,29.98,North,6,7.0,9.0,83,0.00,,OVC023,0.00,VWS V12.07,2013-02-26 16:50:00,
2013-02-26 10:53:00,29.7,25.2,29.98,North,0,3.0,9.0,83,0.00,,OVC023,0.00,VWS V12.07,2013-02-26 16:53:00,
2013-02-26 10:54:00,29.7,25.2,29.98,North,4,3.0,9.0,83,0.00,,OVC023,0.00,VWS V12.07,2013-02-26 16:54:00,
2013-02-26 10:56:00,29.8,25.3,29.98,North,4,2.0,9.0,83,0.00,,OVC023,0.00,VWS V12.07,2013-02-26 16:56:00,
2013-02-26 10:59:00,30.0,25.2,29.98,East,81,4.0,11.0,82,0.00,,OVC023,0.00,VWS V12.07,2013-02-26 16:59:00,
2013-02-26 11:02:00,30.0,24.9,29.98,NE,47,3.0,11.0,81,0.00,,OVC023,0.00,VWS V12.07,2013-02-26 17:02:00,
2013-02-26 11:04:00,29.8,24.7,29.98,NNE,27,0.0,11.0,81,0.00,,OVC023,0.00,VWS V12.07,2013-02-26 17:04:00,
2013-02-26 11:07:00,30.0,24.9,29.98,East,82,4.0,11.0,81,0.00,,OVC021,0.00,VWS V12.07,2013-02-26 17:07:00,
2013-02-26 11:09:00,29.8,24.7,29.98,NNE,33,0.0,6.0,81,0.00,,OVC023,0.00,VWS V12.07,2013-02-26 17:09:00,
2013-02-26 11:10:00,29.8,24.7,29.98,NE,48,6.0,6.0,81,0.00,,OVC023,0.00,VWS V12.07,2013-02-26 17:10:00,
2013-02-26 11:12:00,29.8,24.7,29.98,NNE,25,5.0,7.0,81,0.00,,OVC023,0.00,VWS V12.07,2013-02-26 17:12:00,
2013-02-26 11:14:00,29.8,24.7,29.98,ENE,75,4.0,7.0,81,0.00,,OVC023,0.00,VWS V12.07,2013-02-26 17:14:00,
2013-02-26 11:15:00,29.8,24.7,29.98,East,79,3.0,7.0,81,0.00,,OVC023,0.00,VWS V12.07,2013-02-26 17:15:00,
2013-02-26 11:18:00,29.8,24.7,29.98,East,97,2.0,7.0,81,0.00,,OVC023,0.00,VWS V12.07,2013-02-26 17:18:00,
2013-02-26 11:19:00,29.8,24.7,29.98,ESE,103,2.0,4.0,81,0.00,,OVC023,0.00,VWS V12.07,2013-02-26 17:19:00,
2013-02-26 11:20:00,29.8,24.7,29.98,NE,41,1.0,4.0,81,0.00,,OVC023,0.00,VWS V12.07,2013-02-26 17:20:00,
2013-02-26 11:23:00,30.0,24.6,29.98,ESE,120,2.0,8.0,80,0.00,,OVC023,0.00,VWS V12.07,2013-02-26 17:23:00,
2013-02-26 11:25:00,30.0,24.6,29.98,North,0,2.0,9.0,80,0.00,,OVC023,0.00,VWS V12.07,2013-02-26 17:25:00,
2013-02-26 11:26:00,30.0,24.3,29.98,NNE,27,2.0,9.0,79,0.00,,OVC023,0.00,VWS V12.07,2013-02-26 17:26:00,
2013-02-26 11:28:00,30.0,24.3,29.98,NE,52,0.0,10.0,79,0.00,,OVC023,0.00,VWS V12.07,2013-02-26 17:28:00,
2013-02-26 11:30:00,30.1,24.4,29.97,NE,52,0.0,10.0,79,0.00,,OVC023,0.00,VWS V12.07,2013-02-26 17:30:00,
2013-02-26 11:31:00,30.1,24.4,29.97,North,356,0.0,10.0,79,0.00,,OVC023,0.00,VWS V12.07,2013-02-26 17:31:00,
2013-02-26 11:34:00,30.1,24.4,29.97,NNW,332,3.0,10.0,79,0.00,,OVC023,0.00,VWS V12.07,2013-02-26 17:34:00,
2013-02-26 11:35:00,30.3,24.3,29.97,NE,40,6.0,10.0,78,0.00,,OVC015,0.00,VWS V12.07,2013-02-26 17:35:00,
2013-02-26 11:36:00,30.3,24.3,29.97,ENE,74,3.0,10.0,78,0.00,,OVC015,0.00,VWS V12.07,2013-02-26 17:36:00,
2013-02-26 11:39:00,30.3,24.3,29.97,NE,36,2.0,7.0,78,0.00,,OVC015,0.00,VWS V12.07,2013-02-26 17:39:00,
2013-02-26 11:40:00,30.3,24.3,29.97,NE,36,0.0,7.0,78,0.00,,OVC015,0.00,VWS V12.07,2013-02-26 17:40:00,
2013-02-26 11:41:00,30.3,24.3,29.97,NE,36,1.0,7.0,78,0.00,,OVC015,0.00,VWS V12.07,2013-02-26 17:41:00,
2013-02-26 11:45:00,30.4,24.4,29.97,East,86,2.0,7.0,78,0.00,,OVC015,0.00,VWS V12.07,2013-02-26 17:45:00,
2013-02-26 11:46:00,30.4,24.4,29.97,NNE,23,6.0,7.0,78,0.00,,OVC015,0.00,VWS V12.07,2013-02-26 17:46:00,
2013-02-26 11:50:00,30.3,24.3,29.97,SE,128,0.0,9.0,78,0.00,,OVC017,0.00,VWS V12.07,2013-02-26 17:50:00,
2013-02-26 11:51:00,30.3,24.3,29.97,SE,126,1.0,9.0,78,0.00,,OVC017,0.00,VWS V12.07,2013-02-26 17:51:00,
2013-02-26 11:55:00,30.4,24.4,29.97,NNE,20,2.0,9.0,78,0.00,,OVC017,0.00,VWS V12.07,2013-02-26 17:55:00,
2013-02-26 11:56:00,30.4,24.4,29.97,ESE,121,0.0,9.0,78,0.00,,OVC017,0.00,VWS V12.07,2013-02-26 17:56:00,
2013-02-26 11:57:00,30.4,24.4,29.97,NE,41,4.0,9.0,78,0.00,,OVC017,0.00,VWS V12.07,2013-02-26 17:57:00,
2013-02-26 12:01:00,30.4,24.1,29.96,NE,41,4.0,10.0,77,0.00,,OVC017,0.00,VWS V12.07,2013-02-26 18:01:00,
2013-02-26 12:02:00,30.4,24.1,29.96,NNE,29,1.0,10.0,77,0.00,,OVC017,0.00,VWS V12.07,2013-02-26 18:02:00,
2013-02-26 12:06:00,30.6,24.3,29.96,SE,130,2.0,10.0,77,0.00,,OVC015,0.00,VWS V12.07,2013-02-26 18:06:00,
2013-02-26 12:07:00,30.6,24.3,29.96,ENE,58,2.0,10.0,77,0.00,,OVC015,0.00,VWS V12.07,2013-02-26 18:07:00,
2013-02-26 12:08:00,30.6,24.3,29.96,NNE,23,5.0,10.0,77,0.00,,OVC015,0.00,VWS V12.07,2013-02-26 18:08:00,
2013-02-26 12:11:00,30.7,24.4,29.96,NNE,27,3.0,7.0,77,0.00,,OVC017,0.00,VWS V12.07,2013-02-26 18:11:00,
2013-02-26 12:12:00,30.7,24.4,29.96,NNE,23,7.0,9.0,77,0.00,,OVC017,0.00,VWS V12.07,2013-02-26 18:12:00,
2013-02-26 12:13:00,30.7,24.4,29.96,NE,43,3.0,9.0,77,0.00,,OVC017,0.00,VWS V12.07,2013-02-26 18:13:00,
2013-02-26 12:16:00,30.7,24.0,29.95,NNE,30,6.0,10.0,76,0.00,,OVC017,0.00,VWS V12.07,2013-02-26 18:16:00,
2013-02-26 12:17:00,30.7,24.0,29.95,NNE,13,3.0,10.0,76,0.00,,OVC017,0.00,VWS V12.07,2013-02-26 18:17:00,
2013-02-26 12:18:00,30.7,24.0,29.95,NNE,32,2.0,10.0,76,0.00,,OVC017,0.00,VWS V12.07,2013-02-26 18:18:00,
2013-02-26 12:22:00,30.7,24.0,29.95,North,358,2.0,10.0,76,0.00,,OVC017,0.00,VWS V12.07,2013-02-26 18:22:00,
2013-02-26 12:23:00,30.7,24.0,29.95,NNE,18,4.0,10.0,76,0.00,,OVC017,0.00,VWS V12.07,2013-02-26 18:23:00,
2013-02-26 12:27:00,30.7,24.0,29.95,NNE,24,15.0,15.0,76,0.00,,OVC017,0.00,VWS V12.07,2013-02-26 18:27:00,
2013-02-26 12:28:00,30.7,24.0,29.95,NNE,30,2.0,15.0,76,0.00,,OVC017,0.00,VWS V12.07,2013-02-26 18:28:00,
2013-02-26 12:32:00,30.9,24.2,29.94,SE,124,3.0,15.0,76,0.00,,OVC017,0.00,VWS V12.07,2013-02-26 18:32:00,
2013-02-26 12:33:00,30.9,24.2,29.94,East,91,0.0,15.0,76,0.00,,OVC017,0.00,VWS V12.07,2013-02-26 18:33:00,
2013-02-26 12:37:00,30.9,24.2,29.94,NE,36,3.0,15.0,76,0.00,,OVC017,0.00,VWS V12.07,2013-02-26 18:37:00,
2013-02-26 12:38:00,30.9,24.2,29.94,NNW,328,9.0,15.0,76,0.00,,OVC017,0.00,VWS V12.07,2013-02-26 18:38:00,
2013-02-26 12:42:00,31.0,24.3,29.94,NE,49,3.0,13.0,76,0.00,,OVC017,0.00,VWS V12.07,2013-02-26 18:42:00,
2013-02-26 12:43:00,31.0,24.3,29.94,North,10,4.0,13.0,76,0.00,,OVC017,0.00,VWS V12.07,2013-02-26 18:43:00,
2013-02-26 12:47:00,31.0,24.3,29.93,ENE,75,5.0,13.0,76,0.00,,OVC017,0.00,VWS V12.07,2013-02-26 18:47:00,
2013-02-26 12:48:00,31.0,24.0,29.93,NNE,30,2.0,13.0,75,0.00,,OVC019,0.00,VWS V12.07,2013-02-26 18:48:00,
2013-02-26 12:49:00,31.0,24.0,29.93,NNE,15,2.0,9.0,75,0.00,,OVC019,0.00,VWS V12.07,2013-02-26 18:49:00,
2013-02-26 12:53:00,31.0,24.0,29.93,NE,54,1.0,10.0,75,0.00,,OVC019,0.00,VWS V12.07,2013-02-26 18:53:00,
2013-02-26 12:54:00,31.2,24.5,29.93,North,11,6.0,10.0,76,0.00,,OVC019,0.00,VWS V12.07,2013-02-26 18:54:00,
2013-02-26 12:58:00,31.2,24.2,29.93,ESE,103,3.0,10.0,75,0.00,,OVC019,0.00,VWS V12.07,2013-02-26 18:58:00,
2013-02-26 12:59:00,31.3,24.3,29.93,ENE,68,0.0,9.0,75,0.00,,OVC019,0.00,VWS V12.07,2013-02-26 18:59:00,
2013-02-26 13:04:00,31.3,23.7,29.92,NNE,17,0.0,13.0,73,0.00,,OVC019,0.00,VWS V12.07,2013-02-26 19:04:00,
2013-02-26 13:05:00,31.5,24.2,29.92,ENE,57,4.0,13.0,74,0.00,,OVC017,0.00,VWS V12.07,2013-02-26 19:05:00,
2013-02-26 13:09:00,31.9,23.9,29.92,North,1,1.0,13.0,72,0.00,,OVC019,0.00,VWS V12.07,2013-02-26 19:09:00,
2013-02-26 13:10:00,32.1,24.1,29.92,ENE,58,2.0,13.0,72,0.00,,OVC019,0.00,VWS V12.07,2013-02-26 19:10:00,
2013-02-26 13:14:00,32.2,24.2,29.92,North,0,0.0,13.0,72,0.00,,OVC019,0.00,VWS V12.07,2013-02-26 19:14:00,
2013-02-26 13:15:00,32.4,24.4,29.91,North,0,1.0,13.0,72,0.00,,OVC019,0.00,VWS V12.07,2013-02-26 19:15:00,
2013-02-26 13:19:00,32.7,24.4,29.91,NNW,338,0.0,3.0,71,0.00,,OVC019,0.00,VWS V12.07,2013-02-26 19:19:00,
2013-02-26 13:20:00,32.8,24.5,29.91,North,11,3.0,3.0,71,0.00,,OVC019,0.00,VWS V12.07,2013-02-26 19:20:00,
2013-02-26 13:21:00,32.8,24.5,29.91,North,11,3.0,4.0,71,0.00,,OVC019,0.00,VWS V12.07,2013-02-26 19:21:00,
2013-02-26 13:24:00,32.7,24.0,29.91,ENE,68,7.0,12.0,70,0.00,,OVC019,0.00,VWS V12.07,2013-02-26 19:24:00,
2013-02-26 13:25:00,32.5,23.8,29.91,North,0,10.0,12.0,70,0.00,,OVC019,0.00,VWS V12.07,2013-02-26 19:25:00,
2013-02-26 13:27:00,32.4,24.1,29.91,NE,35,6.0,13.0,71,0.00,,OVC019,0.00,VWS V12.07,2013-02-26 19:27:00,
2013-02-26 13:29:00,32.2,23.9,29.90,North,0,1.0,13.0,71,0.00,,OVC019,0.00,VWS V12.07,2013-02-26 19:29:00,
2013-02-26 13:31:00,32.2,23.9,29.90,NE,44,6.0,13.0,71,0.00,,OVC019,0.00,VWS V12.07,2013-02-26 19:31:00,
2013-02-26 13:32:00,32.2,23.9,29.90,ENE,59,1.0,13.0,71,0.00,,OVC019,0.00,VWS V12.07,2013-02-26 19:32:00,
2013-02-26 13:34:00,32.4,24.1,29.90,North,0,5.0,13.0,71,0.00,,OVC021,0.00,VWS V12.07,2013-02-26 19:34:00,
2013-02-26 13:35:00,32.4,24.1,29.90,North,352,5.0,13.0,71,0.00,,OVC021,0.00,VWS V12.07,2013-02-26 19:35:00,
2013-02-26 13:36:00,32.5,24.2,29.90,NNE,16,0.0,13.0,71,0.00,,OVC021,0.00,VWS V12.07,2013-02-26 19:36:00,
2013-02-26 13:37:00,32.7,24.0,29.90,NE,51,1.0,13.0,70,0.00,,OVC021,0.00,VWS V12.07,2013-02-26 19:37:00,
2013-02-26 13:40:00,33.1,25.1,29.90,NNE,22,4.0,13.0,72,0.00,,OVC021,0.00,VWS V12.07,2013-02-26 19:40:00,
2013-02-26 13:41:00,33.1,24.4,29.90,East,82,0.0,13.0,70,0.00,,OVC021,0.00,VWS V12.07,2013-02-26 19:41:00,
2013-02-26 13:43:00,32.4,24.1,29.90,NNE,16,0.0,13.0,71,0.00,,OVC021,0.00,VWS V12.07,2013-02-26 19:43:00,
2013-02-26 13:45:00,33.4,24.7,29.89,ENE,60,0.0,6.0,70,0.00,,OVC021,0.00,VWS V12.07,2013-02-26 19:45:00,
2013-02-26 13:46:00,33.5,24.8,29.89,NNW,338,0.0,6.0,70,0.00,,OVC021,0.00,VWS V12.07,2013-02-26 19:46:00,
2013-02-26 13:48:00,33.5,24.4,29.89,NNE,26,5.0,11.0,69,0.00,,OVC021,0.00,VWS V12.07,2013-02-26 19:48:00,
2013-02-26 13:50:00,33.4,24.0,29.89,North,1,3.0,11.0,68,0.00,,OVC021,0.00,VWS V12.07,2013-02-26 19:50:00,
2013-02-26 13:52:00,33.2,23.8,29.89,NNE,21,6.0,11.0,68,0.00,,OVC021,0.00,VWS V12.07,2013-02-26 19:52:00,
2013-02-26 13:53:00,33.1,24.0,29.89,North,352,5.0,12.0,69,0.00,,OVC021,0.00,VWS V12.07,2013-02-26 19:53:00,
2013-02-26 13:55:00,32.9,23.9,29.89,NE,35,1.0,12.0,69,0.00,,OVC021,0.00,VWS V12.07,2013-02-26 19:55:00,
2013-02-26 13:57:00,32.8,23.8,29.89,NNE,22,3.0,12.0,69,0.00,,OVC021,0.00,VWS V12.07,2013-02-26 19:57:00,
2013-02-26 13:59:00,32.7,23.7,29.89,North,1,4.0,0.0,69,0.00,,OVC021,0.00,VWS V12.07,2013-02-26 19:59:00,
2013-02-26 14:00:00,32.8,24.1,29.89,North,6,2.0,7.0,70,0.00,,OVC021,0.00,VWS V12.07,2013-02-26 20:00:00,
2013-02-26 14:01:00,32.8,24.1,29.89,North,6,2.0,7.0,70,0.00,,OVC021,0.00,VWS V12.07,2013-02-26 20:01:00,
2013-02-26 14:03:00,33.5,24.4,29.89,NE,37,1.0,7.0,69,0.00,,OVC021,0.00,VWS V12.07,2013-02-26 20:03:00,
2013-02-26 14:04:00,33.7,24.6,29.89,NE,41,2.0,7.0,69,0.00,,OVC021,0.00,VWS V12.07,2013-02-26 20:04:00,
2013-02-26 14:06:00,34.0,24.6,29.89,NNE,32,1.0,7.0,68,0.00,,OVC021,0.00,VWS V12.07,2013-02-26 20:06:00,
2013-02-26 14:08:00,33.8,24.0,29.89,NNE,21,3.0,9.0,67,0.00,,OVC021,0.00,VWS V12.07,2013-02-26 20:08:00,
2013-02-26 14:09:00,34.0,24.6,29.89,NNE,27,3.0,9.0,68,0.00,,OVC021,0.00,VWS V12.07,2013-02-26 20:09:00,
2013-02-26 14:11:00,34.0,24.2,29.89,NE,44,2.0,9.0,67,0.00,,OVC021,0.00,VWS V12.07,2013-02-26 20:11:00,
2013-02-26 14:14:00,34.1,24.3,29.89,East,82,3.0,9.0,67,0.00,,OVC021,0.00,VWS V12.07,2013-02-26 20:14:00,
2013-02-26 14:16:00,34.0,23.5,29.88,NNW,348,1.0,10.0,65,0.00,,OVC021,0.00,VWS V12.07,2013-02-26 20:16:00,
2013-02-26 14:19:00,34.1,24.0,29.88,NNE,31,4.0,10.0,66,0.00,,OVC021,0.00,VWS V12.07,2013-02-26 20:19:00,
2013-02-26 14:21:00,34.3,24.1,29.88,NNE,21,5.0,10.0,66,0.00,,OVC021,0.00,VWS V12.07,2013-02-26 20:21:00,
2013-02-26 14:22:00,34.4,24.2,29.88,NNE,23,3.0,10.0,66,0.00,,OVC021,0.00,VWS V12.07,2013-02-26 20:22:00,
2013-02-26 14:24:00,34.6,24.1,29.88,NE,46,7.0,11.0,65,0.00,,OVC021,0.00,VWS V12.07,2013-02-26 20:24:00,
2013-02-26 14:26:00,34.6,24.1,29.88,ENE,63,3.0,11.0,65,0.00,,OVC021,0.00,VWS V12.07,2013-02-26 20:26:00,
2013-02-26 14:27:00,34.7,24.1,29.88,NNE,27,4.0,11.0,65,0.00,,OVC021,0.00,VWS V12.07,2013-02-26 20:27:00,
2013-02-26 14:29:00,34.6,23.7,29.88,NE,35,2.0,10.0,64,0.00,,OVC021,0.00,VWS V12.07,2013-02-26 20:29:00,
2013-02-26 14:31:00,34.9,24.3,29.86,NNE,29,2.0,10.0,65,0.00,,OVC021,0.00,VWS V12.07,2013-02-26 20:31:00,
2013-02-26 14:32:00,35.0,24.4,29.86,North,0,4.0,10.0,65,0.00,,OVC021,0.00,VWS V12.07,2013-02-26 20:32:00,
2013-02-26 14:33:00,35.0,24.1,29.86,NNE,12,5.0,10.0,64,0.00,,OVC021,0.00,VWS V12.07,2013-02-26 20:33:00,
2013-02-26 14:34:00,35.0,23.3,29.86,NNW,340,2.0,10.0,62,0.00,,BKN021,0.00,VWS V12.07,2013-02-26 20:34:00,
2013-02-26 14:36:00,34.9,23.6,29.86,North,0,4.0,10.0,63,0.00,,BKN021,0.00,VWS V12.07,2013-02-26 20:36:00,
2013-02-26 14:38:00,34.9,23.6,29.86,North,358,1.0,10.0,63,0.00,,BKN021,0.00,VWS V12.07,2013-02-26 20:38:00,
2013-02-26 14:39:00,35.0,23.7,29.86,North,0,6.0,12.0,63,0.00,,BKN021,0.00,VWS V12.07,2013-02-26 20:39:00,
2013-02-26 14:42:00,35.0,23.7,29.86,NNW,347,4.0,12.0,63,0.00,,BKN021,0.00,VWS V12.07,2013-02-26 20:42:00,
2013-02-26 14:43:00,35.0,23.7,29.86,NNE,22,4.0,12.0,63,0.00,,BKN021,0.00,VWS V12.07,2013-02-26 20:43:00,
2013-02-26 14:44:00,35.0,23.7,29.86,North,358,7.0,12.0,63,0.00,,BKN021,0.00,VWS V12.07,2013-02-26 20:44:00,
2013-02-26 14:45:00,35.2,23.9,29.86,North,0,0.0,12.0,63,0.00,,BKN021,0.00,VWS V12.07,2013-02-26 20:45:00,
2013-02-26 14:47:00,35.3,23.6,29.86,NE,48,0.0,12.0,62,0.00,,BKN021,0.00,VWS V12.07,2013-02-26 20:47:00,
2013-02-26 14:48:00,35.5,24.2,29.86,North,0,2.0,12.0,63,0.00,,SCT027,0.00,VWS V12.07,2013-02-26 20:48:00,
2013-02-26 14:49:00,35.6,24.3,29.86,NNW,335,4.0,4.0,63,0.00,,SCT027,0.00,VWS V12.07,2013-02-26 20:49:00,
2013-02-26 14:50:00,35.6,23.9,29.86,NE,41,5.0,7.0,62,0.00,,SCT027,0.00,VWS V12.07,2013-02-26 20:50:00,
2013-02-26 14:52:00,35.6,23.5,29.86,NE,54,9.0,9.0,61,0.00,,SCT027,0.00,VWS V12.07,2013-02-26 20:52:00,
2013-02-26 14:53:00,35.5,23.4,29.86,ENE,63,3.0,9.0,61,0.00,,SCT027,0.00,VWS V12.07,2013-02-26 20:53:00,
2013-02-26 14:55:00,35.5,23.4,29.86,NE,53,4.0,14.0,61,0.00,,SCT027,0.00,VWS V12.07,2013-02-26 20:55:00,
2013-02-26 14:57:00,35.3,23.2,29.86,WNW,298,2.0,14.0,61,0.00,,SCT027,0.00,VWS V12.07,2013-02-26 20:57:00,
2013-02-26 14:58:00,35.3,23.2,29.86,NNE,16,1.0,6.0,61,0.00,,SCT027,0.00,VWS V12.07,2013-02-26 20:58:00,
2013-02-26 15:00:00,35.3,23.2,29.85,North,11,5.0,10.0,61,0.00,,SCT027,0.00,VWS V12.07,2013-02-26 21:00:00,
2013-02-26 15:01:00,35.5,23.4,29.85,North,0,0.0,10.0,61,0.00,,SCT027,0.00,VWS V12.07,2013-02-26 21:01:00,
2013-02-26 15:02:00,35.5,23.4,29.85,ENE,58,3.0,10.0,61,0.00,,SCT027,0.00,VWS V12.07,2013-02-26 21:02:00,
2013-02-26 15:03:00,35.5,23.0,29.85,NE,35,1.0,19.0,60,0.00,,SCT027,0.00,VWS V12.07,2013-02-26 21:03:00,
2013-02-26 15:05:00,35.5,23.0,29.85,NE,37,5.0,19.0,60,0.00,,BKN021,0.00,VWS V12.07,2013-02-26 21:05:00,
2013-02-26 15:06:00,35.5,23.0,29.85,NNE,22,6.0,19.0,60,0.00,,BKN021,0.00,VWS V12.07,2013-02-26 21:06:00,
2013-02-26 15:07:00,35.5,23.4,29.85,NNE,31,10.0,19.0,61,0.00,,BKN021,0.00,VWS V12.07,2013-02-26 21:07:00,
2013-02-26 15:08:00,35.5,23.0,29.85,East,89,1.0,14.0,60,0.00,,SCT027,0.00,VWS V12.07,2013-02-26 21:08:00,
2013-02-26 15:10:00,35.5,23.4,29.85,North,6,7.0,14.0,61,0.00,,SCT027,0.00,VWS V12.07,2013-02-26 21:10:00,
2013-02-26 15:11:00,35.5,23.4,29.85,North,358,4.0,14.0,61,0.00,,SCT027,0.00,VWS V12.07,2013-02-26 21:11:00,
2013-02-26 15:12:00,35.5,23.4,29.85,NNW,340,2.0,14.0,61,0.00,,SCT027,0.00,VWS V12.07,2013-02-26 21:12:00,
2013-02-26 15:13:00,35.6,23.9,29.85,NE,51,7.0,14.0,62,0.00,,SCT027,0.00,VWS V12.07,2013-02-26 21:13:00,
2013-02-26 15:15:00,35.6,23.5,29.84,NNE,12,2.0,14.0,61,0.00,,SCT027,0.00,VWS V12.07,2013-02-26 21:15:00,
2013-02-26 15:16:00,35.8,24.1,29.84,NNW,337,4.0,14.0,62,0.00,,SCT027,0.00,VWS V12.07,2013-02-26 21:16:00,
2013-02-26 15:17:00,35.8,24.1,29.84,NE,35,5.0,8.0,62,0.00,,SCT027,0.00,VWS V12.07,2013-02-26 21:17:00,
2013-02-26 15:18:00,36.0,23.9,29.84,NW,304,4.0,8.0,61,0.00,,SCT027,0.00,VWS V12.07,2013-02-26 21:18:00,
2013-02-26 15:20:00,36.0,23.9,29.84,North,9,4.0,8.0,61,0.00,,SCT027,0.00,VWS V12.07,2013-02-26 21:20:00,
2013-02-26 15:21:00,35.9,23.4,29.84,NNE,13,3.0,8.0,60,0.00,,SCT027,0.00,VWS V12.07,2013-02-26 21:21:00,
2013-02-26 15:22:00,35.9,23.4,29.84,NE,50,0.0,8.0,60,0.00,,SCT027,0.00,VWS V12.07,2013-02-26 21:22:00,
2013-02-26 15:23:00,35.9,23.8,29.84,North,10,1.0,8.0,61,0.00,,SCT027,0.00,VWS V12.07,2013-02-26 21:23:00,
2013-02-26 15:25:00,35.9,23.8,29.84,NNE,16,1.0,8.0,61,0.00,,SCT027,0.00,VWS V12.07,2013-02-26 21:25:00,
2013-02-26 15:27:00,35.9,23.4,29.84,ENE,77,5.0,9.0,60,0.00,,SCT027,0.00,VWS V12.07,2013-02-26 21:27:00,
2013-02-26 15:28:00,35.8,23.3,29.84,NNE,16,1.0,9.0,60,0.00,,SCT027,0.00,VWS V12.07,2013-02-26 21:28:00,
2013-02-26 15:29:00,35.8,23.3,29.84,NNW,347,1.0,9.0,60,0.00,,SCT027,0.00,VWS V12.07,2013-02-26 21:29:00,
2013-02-26 15:30:00,35.6,23.1,29.84,ENE,63,4.0,12.0,60,0.00,,SCT027,0.00,VWS V12.07,2013-02-26 21:30:00,
2013-02-26 15:32:00,35.5,23.0,29.84,NNE,19,2.0,13.0,60,0.00,,SCT027,0.00,VWS V12.07,2013-02-26 21:32:00,
2013-02-26 15:33:00,35.5,23.0,29.84,NNE,27,8.0,13.0,60,0.00,,SCT027,0.00,VWS V12.07,2013-02-26 21:33:00,
2013-02-26 15:34:00,35.5,23.0,29.84,NNW,339,3.0,13.0,60,0.00,,SCT027,0.00,VWS V12.07,2013-02-26 21:34:00,
2013-02-26 15:35:00,35.5,23.0,29.84,North,8,2.0,13.0,60,0.00,,CLR,0.00,VWS V12.07,2013-02-26 21:35:00,
2013-02-26 15:38:00,35.5,22.6,29.84,NNE,23,8.0,13.0,59,0.00,,CLR,0.00,VWS V12.07,2013-02-26 21:38:00,
2013-02-26 15:39:00,35.5,22.6,29.84,North,358,3.0,15.0,59,0.00,,CLR,0.00,VWS V12.07,2013-02-26 21:39:00,
2013-02-26 15:41:00,35.5,22.6,29.84,North,11,1.0,15.0,59,0.00,,CLR,0.00,VWS V12.07,2013-02-26 21:41:00,
2013-02-26 15:43:00,35.5,23.0,29.84,North,8,4.0,15.0,60,0.00,,CLR,0.00,VWS V12.07,2013-02-26 21:43:00,
2013-02-26 15:44:00,35.5,22.6,29.84,North,6,2.0,15.0,59,0.00,,CLR,0.00,VWS V12.07,2013-02-26 21:44:00,
2013-02-26 15:46:00,35.6,22.7,29.84,NE,51,3.0,17.0,59,0.00,,CLR,0.00,VWS V12.07,2013-02-26 21:46:00,
2013-02-26 15:48:00,35.6,23.1,29.84,NE,51,2.0,17.0,60,0.00,,CLR,0.00,VWS V12.07,2013-02-26 21:48:00,
2013-02-26 15:49:00,35.6,23.1,29.84,North,11,3.0,17.0,60,0.00,,CLR,0.00,VWS V12.07,2013-02-26 21:49:00,
2013-02-26 15:51:00,35.6,23.1,29.84,North,0,10.0,17.0,60,0.00,,CLR,0.00,VWS V12.07,2013-02-26 21:51:00,
2013-02-26 15:54:00,35.6,23.1,29.84,NE,35,3.0,17.0,60,0.00,,CLR,0.00,VWS V12.07,2013-02-26 21:54:00,
2013-02-26 15:56:00,35.6,23.1,29.84,North,358,1.0,17.0,60,0.00,,CLR,0.00,VWS V12.07,2013-02-26 21:56:00,
2013-02-26 15:59:00,35.6,23.1,29.84,NNE,25,1.0,6.0,60,0.00,,CLR,0.00,VWS V12.07,2013-02-26 21:59:00,
2013-02-26 16:00:00,35.6,23.1,29.84,NNW,331,2.0,6.0,60,0.00,,CLR,0.00,VWS V12.07,2013-02-26 22:00:00,
2013-02-26 16:01:00,35.6,23.5,29.84,North,352,7.0,10.0,61,0.00,,CLR,0.00,VWS V12.07,2013-02-26 22:01:00,
2013-02-26 16:04:00,35.6,23.1,29.84,North,0,2.0,10.0,60,0.00,,CLR,0.00,VWS V12.07,2013-02-26 22:04:00,
2013-02-26 16:05:00,35.6,23.1,29.84,North,0,2.0,10.0,60,0.00,,CLR,0.00,VWS V12.07,2013-02-26 22:05:00,
2013-02-26 16:06:00,35.6,23.1,29.84,NE,41,4.0,10.0,60,0.00,,CLR,0.00,VWS V12.07,2013-02-26 22:06:00,
2013-02-26 16:09:00,35.5,23.0,29.84,North,350,5.0,11.0,60,0.00,,CLR,0.00,VWS V12.07,2013-02-26 22:09:00,
2013-02-26 16:10:00,35.5,23.0,29.84,ENE,67,3.0,11.0,60,0.00,,CLR,0.00,VWS V12.07,2013-02-26 22:10:00,
2013-02-26 16:11:00,35.5,23.0,29.84,NW,320,2.0,11.0,60,0.00,,CLR,0.00,VWS V12.07,2013-02-26 22:11:00,
2013-02-26 16:14:00,35.5,23.0,29.84,ENE,65,0.0,11.0,60,0.00,,CLR,0.00,VWS V12.07,2013-02-26 22:14:00,
2013-02-26 16:15:00,35.5,23.0,29.84,North,354,1.0,11.0,60,0.00,,CLR,0.00,VWS V12.07,2013-02-26 22:15:00,
2013-02-26 16:16:00,35.5,23.0,29.84,NNE,20,2.0,11.0,60,0.00,,CLR,0.00,VWS V12.07,2013-02-26 22:16:00,
2013-02-26 16:20:00,35.5,23.0,29.84,NNE,14,5.0,6.0,60,0.00,,CLR,0.00,VWS V12.07,2013-02-26 22:20:00,
2013-02-26 16:21:00,35.5,23.0,29.84,North,358,1.0,6.0,60,0.00,,CLR,0.00,VWS V12.07,2013-02-26 22:21:00,
2013-02-26 16:25:00,35.5,23.0,29.84,North,358,1.0,11.0,60,0.00,,CLR,0.00,VWS V12.07,2013-02-26 22:25:00,
2013-02-26 16:26:00,35.3,22.8,29.84,North,4,0.0,11.0,60,0.00,,CLR,0.00,VWS V12.07,2013-02-26 22:26:00,
2013-02-26 16:27:00,35.3,22.8,29.84,North,0,3.0,11.0,60,0.00,,CLR,0.00,VWS V12.07,2013-02-26 22:27:00,
2013-02-26 16:30:00,35.3,23.2,29.84,WNW,302,3.0,16.0,61,0.00,,CLR,0.00,VWS V12.07,2013-02-26 22:30:00,
2013-02-26 16:31:00,35.3,23.2,29.84,North,2,5.0,16.0,61,0.00,,CLR,0.00,VWS V12.07,2013-02-26 22:31:00,
2013-02-26 16:32:00,35.3,23.2,29.84,NW,326,3.0,16.0,61,0.00,,CLR,0.00,VWS V12.07,2013-02-26 22:32:00,
2013-02-26 16:35:00,35.2,23.1,29.84,NNW,343,3.0,16.0,61,0.00,,CLR,0.00,VWS V12.07,2013-02-26 22:35:00,
2013-02-26 16:36:00,35.2,23.1,29.84,North,358,3.0,16.0,61,0.00,,CLR,0.00,VWS V12.07,2013-02-26 22:36:00,
2013-02-26 16:37:00,35.2,22.7,29.84,NNW,347,2.0,16.0,60,0.00,,CLR,0.00,VWS V12.07,2013-02-26 22:37:00,
2013-02-26 16:40:00,35.0,22.9,29.84,North,358,4.0,11.0,61,0.00,,CLR,0.00,VWS V12.07,2013-02-26 22:40:00,
2013-02-26 16:41:00,35.0,22.9,29.84,North,0,4.0,11.0,61,0.00,,CLR,0.00,VWS V12.07,2013-02-26 22:41:00,
2013-02-26 16:42:00,35.0,22.9,29.84,North,358,3.0,11.0,61,0.00,,CLR,0.00,VWS V12.07,2013-02-26 22:42:00,
2013-02-26 16:46:00,34.9,22.8,29.84,NE,41,5.0,11.0,61,0.00,,CLR,0.00,VWS V12.07,2013-02-26 22:46:00,
2013-02-26 16:47:00,34.9,23.2,29.84,North,0,2.0,11.0,62,0.00,,CLR,0.00,VWS V12.07,2013-02-26 22:47:00,
2013-02-26 16:51:00,34.9,23.2,29.84,NNE,29,4.0,7.0,62,0.00,,CLR,0.00,VWS V12.07,2013-02-26 22:51:00,
2013-02-26 16:52:00,34.7,23.0,29.84,NNE,25,1.0,7.0,62,0.00,,CLR,0.00,VWS V12.07,2013-02-26 22:52:00,
2013-02-26 16:56:00,34.7,23.0,29.84,NNE,29,3.0,8.0,62,0.00,,CLR,0.00,VWS V12.07,2013-02-26 22:56:00,
2013-02-26 16:57:00,34.6,23.3,29.84,North,7,3.0,8.0,63,0.00,,CLR,0.00,VWS V12.07,2013-02-26 22:57:00,
2013-02-26 16:58:00,34.6,23.3,29.84,North,8,2.0,8.0,63,0.00,,CLR,0.00,VWS V12.07,2013-02-26 22:58:00,
2013-02-26 17:01:00,34.4,23.1,29.84,NNE,30,1.0,7.0,63,0.00,,CLR,0.00,VWS V12.07,2013-02-26 23:01:00,
2013-02-26 17:02:00,34.4,23.1,29.84,NNE,14,1.0,7.0,63,0.00,,CLR,0.00,VWS V12.07,2013-02-26 23:02:00,
2013-02-26 17:03:00,34.4,23.1,29.84,NNE,17,2.0,7.0,63,0.00,,CLR,0.00,VWS V12.07,2013-02-26 23:03:00,
2013-02-26 17:06:00,34.3,23.4,29.84,North,7,3.0,7.0,64,0.00,,CLR,0.00,VWS V12.07,2013-02-26 23:06:00,
2013-02-26 17:07:00,34.1,23.2,29.84,NNE,18,1.0,7.0,64,0.00,,CLR,0.00,VWS V12.07,2013-02-26 23:07:00,
2013-02-26 17:08:00,34.3,23.4,29.84,NNE,17,0.0,7.0,64,0.00,,CLR,0.00,VWS V12.07,2013-02-26 23:08:00,
2013-02-26 17:11:00,34.0,23.1,29.84,NNE,20,4.0,6.0,64,0.00,,CLR,0.00,VWS V12.07,2013-02-26 23:11:00,
2013-02-26 17:12:00,33.8,22.9,29.84,NNE,17,5.0,7.0,64,0.00,,CLR,0.00,VWS V12.07,2013-02-26 23:12:00,
2013-02-26 17:13:00,33.8,22.9,29.84,North,358,2.0,7.0,64,0.00,,CLR,0.00,VWS V12.07,2013-02-26 23:13:00,
2013-02-26 17:14:00,33.8,22.9,29.84,North,0,1.0,7.0,64,0.00,,CLR,0.00,VWS V12.07,2013-02-26 23:14:00,
2013-02-26 17:16:00,33.7,22.8,29.84,ENE,65,1.0,7.0,64,0.00,,CLR,0.00,VWS V12.07,2013-02-26 23:16:00,
2013-02-26 17:17:00,33.7,22.8,29.84,North,6,2.0,7.0,64,0.00,,CLR,0.00,VWS V12.07,2013-02-26 23:17:00,
2013-02-26 17:18:00,33.5,22.6,29.84,North,6,0.0,7.0,64,0.00,,CLR,0.00,VWS V12.07,2013-02-26 23:18:00,
2013-02-26 17:19:00,33.5,22.6,29.84,North,6,0.0,4.0,64,0.00,,CLR,0.00,VWS V12.07,2013-02-26 23:19:00,
2013-02-26 17:22:00,33.4,22.9,29.84,NE,35,4.0,4.0,65,0.00,,CLR,0.00,VWS V12.07,2013-02-26 23:22:00,
2013-02-26 17:24:00,33.4,22.9,29.84,NE,37,3.0,4.0,65,0.00,,CLR,0.00,VWS V12.07,2013-02-26 23:24:00,
2013-02-26 17:27:00,33.2,22.7,29.84,NNE,22,4.0,10.0,65,0.00,,CLR,0.00,VWS V12.07,2013-02-26 23:27:00,
2013-02-26 17:29:00,33.1,22.3,29.84,NNE,22,2.0,10.0,64,0.00,,CLR,0.00,VWS V12.07,2013-02-26 23:29:00,
2013-02-26 17:32:00,33.1,22.6,29.85,NNE,27,1.0,7.0,65,0.00,,CLR,0.00,VWS V12.07,2013-02-26 23:32:00,
2013-02-26 17:33:00,32.9,22.4,29.85,NE,34,0.0,7.0,65,0.00,,CLR,0.00,VWS V12.07,2013-02-26 23:33:00,
2013-02-26 17:34:00,32.9,22.4,29.85,NE,34,1.0,7.0,65,0.00,,CLR,0.00,VWS V12.07,2013-02-26 23:34:00,
2013-02-26 17:37:00,32.9,22.4,29.85,North,11,1.0,10.0,65,0.00,,CLR,0.00,VWS V12.07,2013-02-26 23:37:00,
2013-02-26 17:38:00,32.8,22.3,29.85,NE,44,4.0,10.0,65,0.00,,CLR,0.00,VWS V12.07,2013-02-26 23:38:00,
2013-02-26 17:39:00,32.8,22.3,29.85,NNE,21,2.0,6.0,65,0.00,,CLR,0.00,VWS V12.07,2013-02-26 23:39:00,
2013-02-26 17:40:00,32.8,22.7,29.85,NNE,19,4.0,6.0,66,0.00,,CLR,0.00,VWS V12.07,2013-02-26 23:40:00,
2013-02-26 17:42:00,32.7,22.6,29.85,NE,50,1.0,6.0,66,0.00,,CLR,0.00,VWS V12.07,2013-02-26 23:42:00,
2013-02-26 17:44:00,32.7,22.6,29.85,NE,36,2.0,6.0,66,0.00,,CLR,0.00,VWS V12.07,2013-02-26 23:44:00,
2013-02-26 17:45:00,32.5,22.4,29.85,NE,36,0.0,6.0,66,0.00,,CLR,0.00,VWS V12.07,2013-02-26 23:45:00,
2013-02-26 17:48:00,32.4,22.7,29.85,NE,42,5.0,6.0,67,0.00,,CLR,0.00,VWS V12.07,2013-02-26 23:48:00,
2013-02-26 17:49:00,32.4,22.3,29.85,NE,44,2.0,7.0,66,0.00,,CLR,0.00,VWS V12.07,2013-02-26 23:49:00,
2013-02-26 17:50:00,32.4,22.7,29.85,NNE,27,4.0,7.0,67,0.00,,CLR,0.00,VWS V12.07,2013-02-26 23:50:00,
2013-02-26 17:53:00,32.2,22.5,29.85,NE,46,1.0,11.0,67,0.00,,CLR,0.00,VWS V12.07,2013-02-26 23:53:00,
2013-02-26 17:54:00,32.2,22.5,29.85,NE,46,0.0,11.0,67,0.00,,CLR,0.00,VWS V12.07,2013-02-26 23:54:00,
2013-02-26 17:55:00,32.1,22.4,29.85,NE,36,1.0,11.0,67,0.00,,CLR,0.00,VWS V12.07,2013-02-26 23:55:00,
2013-02-26 17:58:00,31.9,22.2,29.85,North,0,2.0,11.0,67,0.00,,CLR,0.00,VWS V12.07,2013-02-26 23:58:00,
2013-02-26 17:59:00,31.9,22.2,29.86,ENE,59,2.0,5.0,67,0.00,,CLR,0.00,VWS V12.07,2013-02-26 23:59:00,
2013-02-26 18:00:00,31.8,22.1,29.86,NNE,15,1.0,6.0,67,0.00,,CLR,0.00,VWS V12.07,2013-02-27 00:00:00,
2013-02-26 18:03:00,31.8,22.5,29.86,NE,41,0.0,6.0,68,0.00,,CLR,0.00,VWS V12.07,2013-02-27 00:03:00,
2013-02-26 18:05:00,31.6,22.3,29.86,NE,41,0.0,6.0,68,0.00,,CLR,0.00,VWS V12.07,2013-02-27 00:05:00,
2013-02-26 18:06:00,31.6,22.3,29.86,NE,41,2.0,6.0,68,0.00,,CLR,0.00,VWS V12.07,2013-02-27 00:06:00,
2013-02-26 18:08:00,31.5,22.2,29.86,NE,51,1.0,6.0,68,0.00,,CLR,0.00,VWS V12.07,2013-02-27 00:08:00,
2013-02-26 18:10:00,31.3,22.3,29.86,NNE,28,2.0,3.0,69,0.00,,CLR,0.00,VWS V12.07,2013-02-27 00:10:00,
2013-02-26 18:11:00,31.3,22.3,29.86,NNE,32,0.0,3.0,69,0.00,,CLR,0.00,VWS V12.07,2013-02-27 00:11:00,
2013-02-26 18:13:00,31.2,22.2,29.86,NNE,22,1.0,7.0,69,0.00,,CLR,0.00,VWS V12.07,2013-02-27 00:13:00,
2013-02-26 18:15:00,31.2,22.2,29.86,ENE,62,4.0,7.0,69,0.00,,CLR,0.00,VWS V12.07,2013-02-27 00:15:00,
2013-02-26 18:16:00,31.2,22.2,29.86,NNW,327,3.0,7.0,69,0.00,,CLR,0.00,VWS V12.07,2013-02-27 00:16:00,
2013-02-26 18:18:00,31.0,22.4,29.86,North,6,1.0,7.0,70,0.00,,SCT030,0.00,VWS V12.07,2013-02-27 00:18:00,
2013-02-26 18:20:00,31.0,22.4,29.86,NNE,32,3.0,9.0,70,0.00,,SCT030,0.00,VWS V12.07,2013-02-27 00:20:00,
2013-02-26 18:21:00,30.9,22.3,29.86,NNE,30,5.0,9.0,70,0.00,,SCT030,0.00,VWS V12.07,2013-02-27 00:21:00,
2013-02-26 18:22:00,30.9,22.3,29.86,NNE,32,2.0,9.0,70,0.00,,SCT030,0.00,VWS V12.07,2013-02-27 00:22:00,
2013-02-26 18:23:00,30.9,22.3,29.86,NNW,338,10.0,10.0,70,0.00,,SCT030,0.00,VWS V12.07,2013-02-27 00:23:00,
2013-02-26 18:25:00,30.9,22.3,29.86,NNE,18,4.0,10.0,70,0.00,,SCT030,0.00,VWS V12.07,2013-02-27 00:25:00,
2013-02-26 18:26:00,30.9,22.3,29.86,NE,50,6.0,12.0,70,0.00,,SCT030,0.00,VWS V12.07,2013-02-27 00:26:00,
2013-02-26 18:27:00,30.9,22.3,29.86,NE,37,4.0,12.0,70,0.00,,SCT030,0.00,VWS V12.07,2013-02-27 00:27:00,
2013-02-26 18:28:00,30.7,22.1,29.86,NNE,30,10.0,12.0,70,0.00,,SCT030,0.00,VWS V12.07,2013-02-27 00:28:00,
2013-02-26 18:30:00,30.7,22.1,29.86,North,6,5.0,13.0,70,0.00,,SCT030,0.00,VWS V12.07,2013-02-27 00:30:00,
2013-02-26 18:32:00,30.7,22.1,29.86,North,8,2.0,13.0,70,0.00,,SCT030,0.00,VWS V12.07,2013-02-27 00:32:00,
2013-02-26 18:33:00,30.7,22.1,29.86,North,8,2.0,13.0,70,0.00,,SCT030,0.00,VWS V12.07,2013-02-27 00:33:00,
2013-02-26 18:36:00,30.7,22.1,29.86,NE,51,7.0,13.0,70,0.00,,BKN030,0.00,VWS V12.07,2013-02-27 00:36:00,
2013-02-26 18:37:00,30.6,22.0,29.86,West,261,1.0,13.0,70,0.00,,BKN030,0.00,VWS V12.07,2013-02-27 00:37:00,
2013-02-26 18:38:00,30.6,22.3,29.86,NNE,18,9.0,13.0,71,0.00,,BKN030,0.00,VWS V12.07,2013-02-27 00:38:00,
2013-02-26 18:41:00,30.4,22.1,29.86,NNE,20,6.0,10.0,71,0.00,,BKN030,0.00,VWS V12.07,2013-02-27 00:41:00,
2013-02-26 18:42:00,30.4,22.1,29.86,NE,40,2.0,10.0,71,0.00,,BKN030,0.00,VWS V12.07,2013-02-27 00:42:00,
2013-02-26 18:43:00,30.3,22.0,29.86,North,2,0.0,10.0,71,0.00,,BKN030,0.00,VWS V12.07,2013-02-27 00:43:00,
2013-02-26 18:44:00,30.3,22.0,29.86,North,2,0.0,10.0,71,0.00,,BKN030,0.00,VWS V12.07,2013-02-27 00:44:00,
2013-02-26 18:46:00,30.1,21.9,29.86,NNE,23,3.0,10.0,71,0.00,,BKN030,0.00,VWS V12.07,2013-02-27 00:46:00,
2013-02-26 18:47:00,30.1,21.9,29.86,North,4,4.0,10.0,71,0.00,,BKN030,0.00,VWS V12.07,2013-02-27 00:47:00,
2013-02-26 18:48:00,30.1,22.2,29.86,North,1,4.0,0.0,72,0.00,,BKN025,0.00,VWS V12.07,2013-02-27 00:48:00,
2013-02-26 18:49:00,30.1,22.2,29.86,NNE,19,4.0,7.0,72,0.00,,BKN025,0.00,VWS V12.07,2013-02-27 00:49:00,
2013-02-26 18:51:00,30.0,22.1,29.86,North,8,9.0,10.0,72,0.00,,BKN025,0.00,VWS V12.07,2013-02-27 00:51:00,
2013-02-26 18:52:00,30.0,22.1,29.86,North,0,5.0,10.0,72,0.00,,BKN025,0.00,VWS V12.07,2013-02-27 00:52:00,
2013-02-26 18:54:00,30.0,22.1,29.86,NE,41,5.0,10.0,72,0.00,,BKN025,0.00,VWS V12.07,2013-02-27 00:54:00,
2013-02-26 18:56:00,29.8,21.9,29.86,NNE,30,3.0,10.0,72,0.00,,BKN025,0.00,VWS V12.07,2013-02-27 00:56:00,
2013-02-26 18:57:00,29.8,21.9,29.86,North,0,4.0,10.0,72,0.00,,BKN025,0.00,VWS V12.07,2013-02-27 00:57:00,
2013-02-26 18:59:00,29.7,21.8,29.86,North,0,2.0,7.0,72,0.00,,BKN025,0.00,VWS V12.07,2013-02-27 00:59:00,
2013-02-26 19:02:00,29.7,22.1,29.88,NNE,14,2.0,7.0,73,0.00,,BKN025,0.00,VWS V12.07,2013-02-27 01:02:00,
2013-02-26 19:04:00,29.5,21.9,29.88,NNE,32,2.0,18.0,73,0.00,,BKN025,0.00,VWS V12.07,2013-02-27 01:04:00,
2013-02-26 19:07:00,29.5,21.6,29.88,North,352,1.0,18.0,72,0.00,,BKN025,0.00,VWS V12.07,2013-02-27 01:07:00,
2013-02-26 19:08:00,29.5,21.6,29.88,North,356,10.0,18.0,72,0.00,,BKN025,0.00,VWS V12.07,2013-02-27 01:08:00,
2013-02-26 19:09:00,29.5,21.6,29.88,NNW,332,5.0,12.0,72,0.00,,BKN025,0.00,VWS V12.07,2013-02-27 01:09:00,
2013-02-26 19:12:00,29.5,21.9,29.88,NNE,25,9.0,14.0,73,0.00,,BKN025,0.00,VWS V12.07,2013-02-27 01:12:00,
2013-02-26 19:13:00,29.4,21.8,29.88,NNE,12,5.0,14.0,73,0.00,,BKN025,0.00,VWS V12.07,2013-02-27 01:13:00,
2013-02-26 19:15:00,29.4,21.5,29.90,North,356,4.0,14.0,72,0.00,,BKN025,0.00,VWS V12.07,2013-02-27 01:15:00,
2013-02-26 19:17:00,29.4,21.5,29.90,NNE,21,2.0,14.0,72,0.00,,BKN025,0.00,VWS V12.07,2013-02-27 01:17:00,
2013-02-26 19:18:00,29.4,21.8,29.90,NNW,334,2.0,14.0,73,0.00,,BKN025,0.00,VWS V12.07,2013-02-27 01:18:00,
2013-02-26 19:20:00,29.4,21.8,29.90,NE,49,6.0,7.0,73,0.00,,BKN025,0.00,VWS V12.07,2013-02-27 01:20:00,
2013-02-26 19:22:00,29.4,21.8,29.90,North,11,0.0,7.0,73,0.00,,BKN025,0.00,VWS V12.07,2013-02-27 01:22:00,
2013-02-26 19:23:00,29.4,21.8,29.90,North,6,1.0,7.0,73,0.00,,BKN025,0.00,VWS V12.07,2013-02-27 01:23:00,
2013-02-26 19:25:00,29.3,21.7,29.90,NE,53,3.0,14.0,73,0.00,,BKN025,0.00,VWS V12.07,2013-02-27 01:25:00,
2013-02-26 19:28:00,29.3,21.7,29.90,NNE,32,5.0,14.0,73,0.00,,BKN025,0.00,VWS V12.07,2013-02-27 01:28:00,
2013-02-26 19:30:00,29.1,21.5,29.89,NE,39,2.0,10.0,73,0.00,,BKN025,0.00,VWS V12.07,2013-02-27 01:30:00,
2013-02-26 19:33:00,29.1,21.5,29.89,ENE,59,2.0,10.0,73,0.00,,BKN025,0.00,VWS V12.07,2013-02-27 01:33:00,
2013-02-26 19:35:00,29.0,21.4,29.89,North,0,7.0,12.0,73,0.00,,OVC021,0.00,VWS V12.07,2013-02-27 01:35:00,
2013-02-26 19:38:00,29.0,21.4,29.89,NNW,343,5.0,14.0,73,0.00,,OVC021,0.00,VWS V12.07,2013-02-27 01:38:00,
2013-02-26 19:40:00,29.0,21.4,29.89,ENE,67,4.0,14.0,73,0.00,,OVC021,0.00,VWS V12.07,2013-02-27 01:40:00,
2013-02-26 19:41:00,29.0,21.4,29.89,NE,44,3.0,14.0,73,0.00,,OVC021,0.00,VWS V12.07,2013-02-27 01:41:00,
2013-02-26 19:43:00,28.8,21.6,29.89,NNE,15,1.0,14.0,74,0.00,,OVC021,0.00,VWS V12.07,2013-02-27 01:43:00,
2013-02-26 19:45:00,28.8,21.6,29.89,North,0,3.0,14.0,74,0.00,,OVC021,0.00,VWS V12.07,2013-02-27 01:45:00,
2013-02-26 19:46:00,28.8,21.6,29.89,NNE,33,3.0,14.0,74,0.00,,OVC021,0.00,VWS V12.07,2013-02-27 01:46:00,
2013-02-26 19:48:00,28.8,21.6,29.89,NNE,24,5.0,0.0,74,0.00,,OVC021,0.00,VWS V12.07,2013-02-27 01:48:00,
2013-02-26 19:50:00,28.8,21.6,29.89,NNE,25,2.0,10.0,74,0.00,,OVC021,0.00,VWS V12.07,2013-02-27 01:50:00,
2013-02-26 19:51:00,28.7,21.5,29.89,NE,56,0.0,10.0,74,0.00,,OVC021,0.00,VWS V12.07,2013-02-27 01:51:00,
2013-02-26 19:53:00,28.7,21.5,29.89,NNE,22,0.0,10.0,74,0.00,,OVC021,0.00,VWS V12.07,2013-02-27 01:53:00,
2013-02-26 19:55:00,28.7,21.8,29.89,NW,314,0.0,10.0,75,0.00,,OVC021,0.00,VWS V12.07,2013-02-27 01:55:00,
2013-02-26 19:57:00,28.7,21.5,29.89,NNE,26,0.0,10.0,74,0.00,,OVC021,0.00,VWS V12.07,2013-02-27 01:57:00,
2013-02-26 19:58:00,28.7,21.5,29.89,NNE,21,7.0,10.0,74,0.00,,OVC021,0.00,VWS V12.07,2013-02-27 01:58:00,
2013-02-26 19:59:00,28.7,21.5,29.89,ENE,65,3.0,10.0,74,0.00,,OVC021,0.00,VWS V12.07,2013-02-27 01:59:00,
2013-02-26 20:00:00,28.5,21.3,29.88,NE,45,4.0,10.0,74,0.00,,OVC021,0.00,VWS V12.07,2013-02-27 02:00:00,
2013-02-26 20:03:00,28.5,21.3,29.88,NE,56,1.0,14.0,74,0.00,,OVC021,0.00,VWS V12.07,2013-02-27 02:03:00,
2013-02-26 20:04:00,28.5,21.3,29.88,North,5,5.0,14.0,74,0.00,,OVC021,0.00,VWS V12.07,2013-02-27 02:04:00,
2013-02-26 20:06:00,28.5,21.3,29.88,NE,39,1.0,16.0,74,0.00,,OVC021,0.00,VWS V12.07,2013-02-27 02:06:00,
2013-02-26 20:08:00,28.4,21.2,29.88,NE,39,12.0,16.0,74,0.00,,OVC021,0.00,VWS V12.07,2013-02-27 02:08:00,
2013-02-26 20:09:00,28.4,21.2,29.88,East,96,1.0,13.0,74,0.00,,OVC021,0.00,VWS V12.07,2013-02-27 02:09:00,
2013-02-26 20:11:00,28.4,21.2,29.88,ENE,58,2.0,13.0,74,0.00,,OVC021,0.00,VWS V12.07,2013-02-27 02:11:00,
2013-02-26 20:13:00,28.4,21.2,29.88,North,356,1.0,13.0,74,0.00,,OVC021,0.00,VWS V12.07,2013-02-27 02:13:00,
2013-02-26 20:14:00,28.4,21.5,29.88,North,356,1.0,13.0,75,0.00,,OVC021,0.00,VWS V12.07,2013-02-27 02:14:00,
2013-02-26 20:16:00,28.4,21.5,29.88,NE,54,1.0,13.0,75,0.00,,OVC021,0.00,VWS V12.07,2013-02-27 02:16:00,
2013-02-26 20:18:00,28.2,21.3,29.88,NNE,29,1.0,13.0,75,0.00,,OVC021,0.00,VWS V12.07,2013-02-27 02:18:00,
2013-02-26 20:19:00,28.2,21.3,29.88,NNE,15,3.0,5.0,75,0.00,,OVC021,0.00,VWS V12.07,2013-02-27 02:19:00,
2013-02-26 20:22:00,28.2,21.3,29.88,North,9,3.0,6.0,75,0.00,,OVC021,0.00,VWS V12.07,2013-02-27 02:22:00,
2013-02-26 20:23:00,28.2,21.3,29.88,North,6,1.0,6.0,75,0.00,,OVC021,0.00,VWS V12.07,2013-02-27 02:23:00,
2013-02-26 20:24:00,28.2,21.3,29.88,North,8,6.0,8.0,75,0.00,,OVC021,0.00,VWS V12.07,2013-02-27 02:24:00,
2013-02-26 20:26:00,28.2,21.3,29.88,North,0,1.0,9.0,75,0.00,,OVC021,0.00,VWS V12.07,2013-02-27 02:26:00,
2013-02-26 20:27:00,28.2,21.3,29.88,NNE,15,2.0,9.0,75,0.00,,OVC021,0.00,VWS V12.07,2013-02-27 02:27:00,
2013-02-26 20:28:00,28.2,21.3,29.88,NNE,33,2.0,9.0,75,0.00,,OVC021,0.00,VWS V12.07,2013-02-27 02:28:00,
2013-02-26 20:30:00,28.2,21.3,29.88,NE,38,3.0,6.0,75,0.00,,OVC021,0.00,VWS V12.07,2013-02-27 02:30:00,
2013-02-26 20:31:00,28.2,21.6,29.88,NE,55,3.0,6.0,76,0.00,,OVC021,0.00,VWS V12.07,2013-02-27 02:31:00,
2013-02-26 20:32:00,28.2,21.6,29.88,ENE,72,3.0,6.0,76,0.00,,OVC021,0.00,VWS V12.07,2013-02-27 02:32:00,
2013-02-26 20:33:00,28.2,21.6,29.88,NNE,29,2.0,9.0,76,0.00,,OVC021,0.00,VWS V12.07,2013-02-27 02:33:00,
2013-02-26 20:35:00,28.1,21.5,29.88,North,7,4.0,9.0,76,0.00,,OVC019,0.00,VWS V12.07,2013-02-27 02:35:00,
2013-02-26 20:36:00,28.1,21.5,29.88,North,352,3.0,9.0,76,0.00,,OVC019,0.00,VWS V12.07,2013-02-27 02:36:00,
2013-02-26 20:37:00,28.1,21.5,29.88,ESE,106,0.0,9.0,76,0.00,,OVC019,0.00,VWS V12.07,2013-02-27 02:37:00,
2013-02-26 20:38:00,28.1,21.5,29.88,East,83,2.0,9.0,76,0.00,,OVC019,0.00,VWS V12.07,2013-02-27 02:38:00,
2013-02-26 20:40:00,28.1,21.5,29.88,North,11,0.0,7.0,76,0.00,,OVC019,0.00,VWS V12.07,2013-02-27 02:40:00,
2013-02-26 20:42:00,28.1,21.5,29.88,North,0,4.0,7.0,76,0.00,,OVC019,0.00,VWS V12.07,2013-02-27 02:42:00,
2013-02-26 20:43:00,28.1,21.5,29.88,NE,37,0.0,7.0,76,0.00,,OVC019,0.00,VWS V12.07,2013-02-27 02:43:00,
2013-02-26 20:45:00,28.1,21.5,29.87,NNE,22,2.0,7.0,76,0.00,,OVC019,0.00,VWS V12.07,2013-02-27 02:45:00,
2013-02-26 20:47:00,28.1,21.5,29.87,NNE,13,3.0,7.0,76,0.00,,OVC019,0.00,VWS V12.07,2013-02-27 02:47:00,
2013-02-26 20:48:00,28.1,21.5,29.87,NNE,28,3.0,7.0,76,0.00,,OVC019,0.00,VWS V12.07,2013-02-27 02:48:00,
2013-02-26 20:51:00,27.9,21.3,29.87,NNE,27,3.0,7.0,76,0.00,,OVC019,0.00,VWS V12.07,2013-02-27 02:51:00,
2013-02-26 20:52:00,27.9,21.3,29.87,North,358,2.0,7.0,76,0.00,,OVC019,0.00,VWS V12.07,2013-02-27 02:52:00,
2013-02-26 20:53:00,27.9,21.3,29.87,North,358,1.0,7.0,76,0.00,,OVC019,0.00,VWS V12.07,2013-02-27 02:53:00,
2013-02-26 20:54:00,27.9,21.3,29.87,North,11,0.0,7.0,76,0.00,,OVC019,0.00,VWS V12.07,2013-02-27 02:54:00,
2013-02-26 20:56:00,27.9,21.3,29.87,NE,56,4.0,15.0,76,0.00,,OVC019,0.00,VWS V12.07,2013-02-27 02:56:00,
2013-02-26 20:57:00,27.8,21.2,29.87,East,79,1.0,15.0,76,0.00,,OVC019,0.00,VWS V12.07,2013-02-27 02:57:00,
2013-02-26 20:58:00,27.8,21.2,29.87,NE,50,1.0,15.0,76,0.00,,OVC019,0.00,VWS V12.07,2013-02-27 02:58:00,
2013-02-26 20:59:00,27.8,21.2,29.87,ENE,60,9.0,9.0,76,0.00,,OVC019,0.00,VWS V12.07,2013-02-27 02:59:00,
2013-02-26 21:01:00,27.8,21.2,29.87,NE,51,3.0,9.0,76,0.00,,OVC019,0.00,VWS V12.07,2013-02-27 03:01:00,
2013-02-26 21:02:00,27.8,21.2,29.87,SSE,158,2.0,9.0,76,0.00,,OVC019,0.00,VWS V12.07,2013-02-27 03:02:00,
2013-02-26 21:03:00,27.8,21.2,29.87,NNE,29,1.0,9.0,76,0.00,,OVC019,0.00,VWS V12.07,2013-02-27 03:03:00,
2013-02-26 21:04:00,27.8,21.2,29.87,NNE,29,0.0,9.0,76,0.00,,OVC019,0.00,VWS V12.07,2013-02-27 03:04:00,
2013-02-26 21:06:00,27.8,21.2,29.87,NE,43,3.0,9.0,76,0.00,,OVC019,0.00,VWS V12.07,2013-02-27 03:06:00,
2013-02-26 21:07:00,27.6,21.0,29.87,North,349,5.0,9.0,76,0.00,,OVC019,0.00,VWS V12.07,2013-02-27 03:07:00,
2013-02-26 21:08:00,27.6,21.0,29.87,North,2,2.0,11.0,76,0.00,,OVC019,0.00,VWS V12.07,2013-02-27 03:08:00,
2013-02-26 21:09:00,27.6,21.0,29.87,NNE,19,3.0,11.0,76,0.00,,OVC019,0.00,VWS V12.07,2013-02-27 03:09:00,
2013-02-26 21:11:00,27.6,21.0,29.87,NE,41,4.0,12.0,76,0.00,,OVC019,0.00,VWS V12.07,2013-02-27 03:11:00,
2013-02-26 21:12:00,27.6,21.0,29.87,North,358,0.0,12.0,76,0.00,,OVC019,0.00,VWS V12.07,2013-02-27 03:12:00,
2013-02-26 21:14:00,27.6,21.0,29.87,North,358,0.0,12.0,76,0.00,,OVC019,0.00,VWS V12.07,2013-02-27 03:14:00,
2013-02-26 21:17:00,27.6,21.0,29.87,NE,41,4.0,12.0,76,0.00,,OVC019,0.00,VWS V12.07,2013-02-27 03:17:00,
2013-02-26 21:18:00,27.6,21.0,29.87,ENE,70,9.0,12.0,76,0.00,,OVC019,0.00,VWS V12.07,2013-02-27 03:18:00,
2013-02-26 21:19:00,27.6,21.0,29.87,NNE,15,1.0,11.0,76,0.00,,OVC019,0.00,VWS V12.07,2013-02-27 03:19:00,
2013-02-26 21:22:00,27.6,21.0,29.87,ENE,67,6.0,11.0,76,0.00,,OVC019,0.00,VWS V12.07,2013-02-27 03:22:00,
2013-02-26 21:23:00,27.6,21.0,29.87,NNE,30,1.0,11.0,76,0.00,,OVC019,0.00,VWS V12.07,2013-02-27 03:23:00,
2013-02-26 21:24:00,27.6,21.0,29.87,NE,37,6.0,11.0,76,0.00,,OVC019,0.00,VWS V12.07,2013-02-27 03:24:00,
2013-02-26 21:27:00,27.5,21.2,29.87,NE,48,3.0,11.0,77,0.00,,OVC019,0.00,VWS V12.07,2013-02-27 03:27:00,
2013-02-26 21:28:00,27.5,21.2,29.87,NNE,30,1.0,11.0,77,0.00,,OVC019,0.00,VWS V12.07,2013-02-27 03:28:00,
2013-02-26 21:29:00,27.5,21.2,29.87,NE,44,4.0,9.0,77,0.00,,OVC019,0.00,VWS V12.07,2013-02-27 03:29:00,
2013-02-26 21:30:00,27.5,21.2,29.87,ESE,111,3.0,9.0,77,0.00,,OVC019,0.00,VWS V12.07,2013-02-27 03:30:00,
2013-02-26 21:33:00,27.5,21.2,29.87,East,81,2.0,9.0,77,0.00,,OVC019,0.00,VWS V12.07,2013-02-27 03:33:00,
2013-02-26 21:34:00,27.5,21.2,29.87,NE,34,4.0,9.0,77,0.00,,OVC017,0.00,VWS V12.07,2013-02-27 03:34:00,
2013-02-26 21:35:00,27.5,21.2,29.87,NNW,330,1.0,9.0,77,0.00,,OVC017,0.00,VWS V12.07,2013-02-27 03:35:00,
2013-02-26 21:38:00,27.5,21.2,29.87,ENE,59,4.0,10.0,77,0.00,,OVC017,0.00,VWS V12.07,2013-02-27 03:38:00,
2013-02-26 21:39:00,27.5,21.2,29.87,NNE,31,3.0,10.0,77,0.00,,OVC017,0.00,VWS V12.07,2013-02-27 03:39:00,
2013-02-26 21:40:00,27.5,21.2,29.87,NNE,18,2.0,10.0,77,0.00,,OVC017,0.00,VWS V12.07,2013-02-27 03:40:00,
2013-02-26 21:43:00,27.5,21.2,29.87,ENE,72,3.0,10.0,77,0.00,,OVC017,0.00,VWS V12.07,2013-02-27 03:43:00,
2013-02-26 21:44:00,27.5,21.2,29.87,North,0,3.0,10.0,77,0.00,,OVC017,0.00,VWS V12.07,2013-02-27 03:44:00,
2013-02-26 21:45:00,27.5,21.5,29.86,ENE,75,2.0,10.0,78,0.00,,OVC017,0.00,VWS V12.07,2013-02-27 03:45:00,
2013-02-26 21:49:00,27.5,21.5,29.86,North,0,2.0,11.0,78,0.00,,OVC017,0.00,VWS V12.07,2013-02-27 03:49:00,
2013-02-26 21:50:00,27.3,21.4,29.86,NE,55,0.0,11.0,78,0.00,,OVC017,0.00,VWS V12.07,2013-02-27 03:50:00,
2013-02-26 21:54:00,27.3,21.4,29.86,North,0,2.0,11.0,78,0.00,,OVC017,0.00,VWS V12.07,2013-02-27 03:54:00,
2013-02-26 21:55:00,27.3,21.4,29.86,NE,40,2.0,11.0,78,0.00,,OVC017,0.00,VWS V12.07,2013-02-27 03:55:00,
2013-02-26 21:59:00,27.3,21.4,29.86,NE,34,3.0,8.0,78,0.00,,OVC017,0.00,VWS V12.07,2013-02-27 03:59:00,
2013-02-26 22:00:00,27.3,21.4,29.85,ENE,58,2.0,8.0,78,0.00,,OVC017,0.00,VWS V12.07,2013-02-27 04:00:00,
2013-02-26 22:01:00,27.3,21.4,29.85,NE,56,1.0,8.0,78,0.00,,OVC017,0.00,VWS V12.07,2013-02-27 04:01:00,
2013-02-26 22:04:00,27.3,21.4,29.85,WNW,287,5.0,8.0,78,0.00,,OVC017,0.00,VWS V12.07,2013-02-27 04:04:00,
2013-02-26 22:06:00,27.3,21.4,29.85,NNE,31,2.0,8.0,78,0.00,,OVC017,0.00,VWS V12.07,2013-02-27 04:06:00,
2013-02-26 22:09:00,27.3,21.7,29.85,NE,37,1.0,6.0,79,0.00,,OVC017,0.00,VWS V12.07,2013-02-27 04:09:00,
2013-02-26 22:11:00,27.3,21.7,29.85,North,354,1.0,6.0,79,0.00,,OVC017,0.00,VWS V12.07,2013-02-27 04:11:00,
2013-02-26 22:14:00,27.3,21.7,29.85,North,5,3.0,0.0,79,0.00,,OVC017,0.00,VWS V12.07,2013-02-27 04:14:00,
2013-02-26 22:16:00,27.3,21.7,29.85,NE,50,7.0,10.0,79,0.00,,OVC017,0.00,VWS V12.07,2013-02-27 04:16:00,
2013-02-26 22:19:00,27.3,21.7,29.85,NNE,20,1.0,13.0,79,0.00,,OVC017,0.00,VWS V12.07,2013-02-27 04:19:00,
2013-02-26 22:21:00,27.3,21.7,29.85,NE,39,2.0,13.0,79,0.00,,OVC017,0.00,VWS V12.07,2013-02-27 04:21:00,
2013-02-26 22:22:00,27.3,21.7,29.85,NNE,33,4.0,13.0,79,0.00,,OVC017,0.00,VWS V12.07,2013-02-27 04:22:00,
2013-02-26 22:25:00,27.3,21.7,29.85,NNE,20,1.0,13.0,79,0.00,,OVC017,0.00,VWS V12.07,2013-02-27 04:25:00,
2013-02-26 22:26:00,27.3,21.7,29.85,North,356,2.0,13.0,79,0.00,,OVC017,0.00,VWS V12.07,2013-02-27 04:26:00,
2013-02-26 22:27:00,27.3,22.0,29.85,NNE,30,0.0,13.0,80,0.00,,OVC017,0.00,VWS V12.07,2013-02-27 04:27:00,
2013-02-26 22:30:00,27.3,22.0,29.85,NNW,342,2.0,3.0,80,0.00,,OVC017,0.00,VWS V12.07,2013-02-27 04:30:00,
2013-02-26 22:31:00,27.3,22.0,29.85,NE,39,4.0,6.0,80,0.00,,OVC017,0.00,VWS V12.07,2013-02-27 04:31:00,
2013-02-26 22:33:00,27.3,22.0,29.85,NNE,24,5.0,9.0,80,0.00,,OVC017,0.00,VWS V12.07,2013-02-27 04:33:00,
2013-02-26 22:35:00,27.3,22.0,29.85,North,358,0.0,9.0,80,0.00,,OVC017,0.00,VWS V12.07,2013-02-27 04:35:00,
2013-02-26 22:36:00,27.3,22.0,29.85,North,8,1.0,9.0,80,0.00,,OVC017,0.00,VWS V12.07,2013-02-27 04:36:00,
2013-02-26 22:37:00,27.3,22.0,29.85,NNE,13,3.0,11.0,80,0.00,,OVC017,0.00,VWS V12.07,2013-02-27 04:37:00,
2013-02-26 22:38:00,27.3,22.0,29.85,North,1,10.0,11.0,80,0.00,,OVC017,0.00,VWS V12.07,2013-02-27 04:38:00,
2013-02-26 22:40:00,27.3,22.0,29.85,ENE,65,3.0,11.0,80,0.00,,OVC017,0.00,VWS V12.07,2013-02-27 04:40:00,
2013-02-26 22:42:00,27.3,22.0,29.85,NE,41,3.0,11.0,80,0.00,,OVC017,0.00,VWS V12.07,2013-02-27 04:42:00,
2013-02-26 22:43:00,27.3,22.0,29.85,NE,37,3.0,11.0,80,0.00,,OVC017,0.00,VWS V12.07,2013-02-27 04:43:00,
2013-02-26 22:45:00,27.3,22.0,29.84,NNE,20,1.0,11.0,80,0.00,,OVC017,0.00,VWS V12.07,2013-02-27 04:45:00,
2013-02-26 22:48:00,27.3,22.0,29.84,North,0,0.0,11.0,80,0.00,,OVC017,0.00,VWS V12.07,2013-02-27 04:48:00,
2013-02-26 22:50:00,27.3,22.0,29.84,NNW,345,2.0,7.0,80,0.00,,OVC015,0.00,VWS V12.07,2013-02-27 04:50:00,
2013-02-26 22:53:00,27.3,22.0,29.84,NNE,14,0.0,15.0,80,0.00,,OVC015,0.00,VWS V12.07,2013-02-27 04:53:00,
2013-02-26 22:55:00,27.3,22.0,29.84,North,356,3.0,15.0,80,0.00,,OVC015,0.00,VWS V12.07,2013-02-27 04:55:00,
2013-02-26 22:58:00,27.3,22.0,29.84,NE,43,6.0,15.0,80,0.00,,OVC015,0.00,VWS V12.07,2013-02-27 04:58:00,
2013-02-26 23:00:00,27.3,22.0,29.84,NW,325,3.0,15.0,80,0.00,,OVC015,0.00,VWS V12.07,2013-02-27 05:00:00,
2013-02-26 23:01:00,27.3,22.0,29.84,NE,51,4.0,15.0,80,0.00,,OVC015,0.00,VWS V12.07,2013-02-27 05:01:00,
2013-02-26 23:05:00,27.3,22.0,29.84,NNE,30,4.0,15.0,80,0.00,,OVC017,0.00,VWS V12.07,2013-02-27 05:05:00,
2013-02-26 23:06:00,27.3,22.0,29.84,ENE,63,3.0,15.0,80,0.00,,OVC017,0.00,VWS V12.07,2013-02-27 05:06:00,
2013-02-26 23:10:00,27.3,22.0,29.84,NE,38,6.0,6.0,80,0.00,,OVC015,0.00,VWS V12.07,2013-02-27 05:10:00,
2013-02-26 23:11:00,27.3,22.0,29.84,NNE,20,4.0,11.0,80,0.00,,OVC015,0.00,VWS V12.07,2013-02-27 05:11:00,
2013-02-26 23:15:00,27.3,22.0,29.84,NE,44,4.0,11.0,80,0.00,,OVC015,0.00,VWS V12.07,2013-02-27 05:15:00,
2013-02-26 23:16:00,27.3,22.0,29.84,NNE,25,2.0,11.0,80,0.00,,OVC015,0.00,VWS V12.07,2013-02-27 05:16:00,
2013-02-26 23:20:00,27.3,22.0,29.84,ENE,65,5.0,10.0,80,0.00,,OVC015,0.00,VWS V12.07,2013-02-27 05:20:00,
2013-02-26 23:21:00,27.3,22.0,29.84,North,0,3.0,10.0,80,0.00,,OVC015,0.00,VWS V12.07,2013-02-27 05:21:00,
2013-02-26 23:25:00,27.3,22.0,29.84,NNE,12,3.0,10.0,80,0.00,,OVC015,0.00,VWS V12.07,2013-02-27 05:25:00,
2013-02-26 23:26:00,27.3,22.0,29.84,North,356,9.0,10.0,80,0.00,,OVC015,0.00,VWS V12.07,2013-02-27 05:26:00,
2013-02-26 23:30:00,27.3,22.0,29.84,NNE,28,2.0,9.0,80,0.00,,OVC015,0.00,VWS V12.07,2013-02-27 05:30:00,
2013-02-26 23:31:00,27.3,22.0,29.84,NNE,29,0.0,9.0,80,0.00,,OVC015,0.00,VWS V12.07,2013-02-27 05:31:00,
2013-02-26 23:32:00,27.3,22.0,29.84,NNE,29,0.0,9.0,80,0.00,,OVC015,0.00,VWS V12.07,2013-02-27 05:32:00,
2013-02-26 23:36:00,27.3,22.0,29.84,NE,36,5.0,9.0,80,0.00,,OVC015,0.00,VWS V12.07,2013-02-27 05:36:00,
2013-02-26 23:37:00,27.3,22.0,29.84,NNE,32,2.0,9.0,80,0.00,,OVC015,0.00,VWS V12.07,2013-02-27 05:37:00,
2013-02-26 23:41:00,27.3,22.2,29.84,NE,54,1.0,10.0,81,0.00,,OVC015,0.00,VWS V12.07,2013-02-27 05:41:00,
2013-02-26 23:42:00,27.3,22.2,29.84,North,1,13.0,15.0,81,0.00,,OVC015,0.00,VWS V12.07,2013-02-27 05:42:00,
2013-02-26 23:46:00,27.3,22.2,29.84,North,9,6.0,15.0,81,0.00,,OVC015,0.00,VWS V12.07,2013-02-27 05:46:00,
2013-02-26 23:47:00,27.3,22.2,29.84,North,3,6.0,15.0,81,0.00,,OVC015,0.00,VWS V12.07,2013-02-27 05:47:00,
2013-02-26 23:48:00,27.3,22.2,29.84,North,0,0.0,15.0,81,0.00,,OVC015,0.00,VWS V12.07,2013-02-27 05:48:00,
2013-02-26 23:51:00,27.3,22.2,29.84,North,351,0.0,12.0,81,0.00,,OVC015,0.00,VWS V12.07,2013-02-27 05:51:00,
2013-02-26 23:52:00,27.3,22.2,29.84,North,2,4.0,12.0,81,0.00,,OVC015,0.00,VWS V12.07,2013-02-27 05:52:00,
2013-02-26 23:53:00,27.3,22.2,29.84,NNW,345,2.0,12.0,81,0.00,,OVC015,0.00,VWS V12.07,2013-02-27 05:53:00,
2013-02-26 23:56:00,27.3,22.2,29.84,NNE,31,0.0,12.0,81,0.00,,OVC015,0.00,VWS V12.07,2013-02-27 05:56:00,
2013-02-26 23:57:00,27.3,22.2,29.84,NNE,31,1.0,12.0,81,0.00,,OVC015,0.00,VWS V12.07,2013-02-27 05:57:00,
2013-02-26 23:58:00,27.3,22.2,29.84,North,358,2.0,12.0,81,0.00,,OVC015,0.00,VWS V12.07,2013-02-27 05:58:00,